UAE772 OMDB-FACT

Flight info

Callsign UAE772
Flight time 9h 1m
Altitude 34000
Route ANVIX R401 GIDIS G783 UKRAG/N0488F350 L710 KUKDI/N0486F340 B400 VEDET/N0483F360 UL437 DV/N0478F380 UL437 VBU UP305 XOXAM UT969 ESPUV DCT UDGIM UQ60 NEXIT UQ23 OKLOK DCT ERDAS ERDAS1C
Aircraft B77L/H-SDE1E2E3FGHIJ2J3J4J5M1RWXY/LB1D1

Departure

Time 2026-05-04 23:57
Airport Dubai International Airport (OMDB)

Arrival

Time 2026-05-05 08:58
Airport Cape Town International Airport (FACT)
Time Latitude Longitude Altitude Speed Heading
2026-05-04 23:34 25.24524 55.37048 25 ft 0 kts 211°
2026-05-04 23:46 25.24544 55.37061 31 ft 4 kts 211°
2026-05-04 23:46 25.24567 55.37077 31 ft 4 kts 211°
2026-05-04 23:46 25.24586 55.37089 31 ft 4 kts 200°
2026-05-04 23:46 25.24610 55.37091 31 ft 4 kts 152°
2026-05-04 23:47 25.24627 55.37073 31 ft 4 kts 122°
2026-05-04 23:47 25.24640 55.37049 31 ft 2 kts 122°
2026-05-04 23:47 25.24641 55.37048 31 ft 0 kts 122°
2026-05-04 23:50 25.24633 55.37062 31 ft 8 kts 122°
2026-05-04 23:51 25.24600 55.37121 30 ft 9 kts 122°
2026-05-04 23:51 25.24566 55.37179 29 ft 9 kts 122°
2026-05-04 23:51 25.24533 55.37238 27 ft 9 kts 122°
2026-05-04 23:51 25.24500 55.37297 28 ft 9 kts 122°
2026-05-04 23:52 25.24467 55.37356 29 ft 9 kts 121°
2026-05-04 23:52 25.24439 55.37417 28 ft 9 kts 109°
2026-05-04 23:52 25.24428 55.37485 29 ft 9 kts 94°
2026-05-04 23:52 25.24425 55.37555 28 ft 9 kts 92°
2026-05-04 23:53 25.24414 55.37623 28 ft 9 kts 108°
2026-05-04 23:53 25.24386 55.37685 27 ft 9 kts 119°
2026-05-04 23:53 25.24390 55.37748 32 ft 9 kts 46°
2026-05-04 23:53 25.24442 55.37788 27 ft 9 kts 34°
2026-05-04 23:54 25.24494 55.37827 28 ft 9 kts 34°
2026-05-04 23:54 25.24546 55.37867 28 ft 9 kts 34°
2026-05-04 23:54 25.24600 55.37907 27 ft 10 kts 34°
2026-05-04 23:54 25.24657 55.37948 27 ft 10 kts 33°
2026-05-04 23:55 25.24714 55.37988 28 ft 9 kts 31°
2026-05-04 23:55 25.24764 55.38022 29 ft 8 kts 31°
2026-05-04 23:55 25.24822 55.37997 29 ft 0 kts 301°
2026-05-04 23:56 25.24824 55.37993 29 ft 6 kts 301°
2026-05-04 23:56 25.24924 55.37811 30 ft 58 kts 301°
2026-05-04 23:56 25.25257 55.37213 31 ft 123 kts 302°
2026-05-04 23:56 25.25803 55.36229 30 ft 174 kts 301°
2026-05-04 23:57 25.26453 55.35007 372 ft 182 kts 300°
2026-05-04 23:57 25.27102 55.33846 963 ft 176 kts 301°
2026-05-04 23:57 25.27747 55.32681 1435 ft 180 kts 301°
2026-05-04 23:57 25.28407 55.31504 1869 ft 186 kts 302°
2026-05-04 23:58 25.29104 55.30254 2208 ft 194 kts 298°
2026-05-04 23:58 25.29334 55.28783 2477 ft 203 kts 255°
2026-05-04 23:58 25.28722 55.27372 2875 ft 205 kts 244°
2026-05-04 23:58 25.28083 55.25948 3337 ft 207 kts 246°
2026-05-04 23:59 25.27464 55.24510 3847 ft 208 kts 247°
2026-05-04 23:59 25.26840 55.23051 4312 ft 211 kts 248°
2026-05-04 23:59 25.26212 55.21581 4753 ft 214 kts 248°
2026-05-04 23:59 25.25557 55.20043 4934 ft 235 kts 248°
2026-05-05 00:00 25.24831 55.18366 5240 ft 247 kts 242°
2026-05-05 00:00 25.24513 55.17819 5326 ft 252 kts 231°
2026-05-05 00:00 25.21827 55.16592 5887 ft 269 kts 175°
2026-05-05 00:00 25.19943 55.16834 6271 ft 274 kts 164°
2026-05-05 00:01 25.18263 55.17833 6589 ft 281 kts 130°
2026-05-05 00:01 25.17215 55.19659 6890 ft 287 kts 112°
2026-05-05 00:01 25.16302 55.21657 7369 ft 295 kts 115°
2026-05-05 00:01 25.15339 55.23676 8028 ft 298 kts 115°
2026-05-05 00:02 25.14367 55.25700 8722 ft 299 kts 115°
2026-05-05 00:02 25.13388 55.27740 9419 ft 300 kts 116°
2026-05-05 00:02 25.12421 55.29754 10037 ft 303 kts 116°
2026-05-05 00:02 25.11428 55.31819 10607 ft 307 kts 116°
2026-05-05 00:03 25.10433 55.33924 11246 ft 311 kts 115°
2026-05-05 00:03 25.09522 55.36113 11917 ft 315 kts 113°
2026-05-05 00:03 25.08627 55.38335 12635 ft 319 kts 114°
2026-05-05 00:03 25.07713 55.40584 13331 ft 324 kts 114°
2026-05-05 00:04 25.06787 55.42883 13898 ft 333 kts 113°
2026-05-05 00:04 25.05851 55.45317 14058 ft 356 kts 113°
2026-05-05 00:04 25.04877 55.47877 14219 ft 377 kts 113°
2026-05-05 00:04 25.03829 55.50616 14374 ft 399 kts 113°
2026-05-05 00:05 25.02723 55.53488 14729 ft 412 kts 113°
2026-05-05 00:05 25.01556 55.56412 15248 ft 419 kts 117°
2026-05-05 00:05 25.00007 55.59130 15743 ft 422 kts 133°
2026-05-05 00:05 24.97702 55.61115 16338 ft 422 kts 154°
2026-05-05 00:06 24.95911 55.61936 16824 ft 421 kts 165°
2026-05-05 00:06 24.93035 55.62490 17521 ft 418 kts 181°
2026-05-05 00:06 24.90127 55.62441 18081 ft 420 kts 184°
2026-05-05 00:06 24.86220 55.62282 18782 ft 426 kts 184°
2026-05-05 00:07 24.83240 55.62157 19364 ft 429 kts 184°
2026-05-05 00:07 24.81251 55.62080 19745 ft 431 kts 184°
2026-05-05 00:07 24.78240 55.61974 20322 ft 435 kts 184°
2026-05-05 00:07 24.75203 55.61880 20857 ft 438 kts 184°
2026-05-05 00:08 24.72137 55.61794 21380 ft 442 kts 184°
2026-05-05 00:08 24.69047 55.61712 21923 ft 446 kts 183°
2026-05-05 00:08 24.65933 55.61632 22446 ft 449 kts 183°
2026-05-05 00:08 24.62794 55.61551 22966 ft 453 kts 183°
2026-05-05 00:09 24.59623 55.61470 23448 ft 457 kts 184°
2026-05-05 00:09 24.56434 55.61387 23862 ft 460 kts 184°
2026-05-05 00:09 24.53221 55.61304 24256 ft 463 kts 184°
2026-05-05 00:09 24.50031 55.61221 24665 ft 466 kts 184°
2026-05-05 00:10 24.46781 55.61137 25072 ft 468 kts 184°
2026-05-05 00:10 24.43513 55.61052 25491 ft 471 kts 184°
2026-05-05 00:10 24.40227 55.60967 25895 ft 474 kts 184°
2026-05-05 00:10 24.36938 55.60882 26310 ft 476 kts 184°
2026-05-05 00:11 24.33620 55.60797 26735 ft 478 kts 184°
2026-05-05 00:11 24.30278 55.60710 27135 ft 481 kts 184°
2026-05-05 00:11 24.26930 55.60503 27510 ft 481 kts 189°
2026-05-05 00:11 24.23617 55.59955 27877 ft 482 kts 195°
2026-05-05 00:12 24.20373 55.59034 28246 ft 482 kts 199°
2026-05-05 00:12 24.17138 55.58025 28608 ft 484 kts 199°
2026-05-05 00:12 24.13885 55.57025 28988 ft 486 kts 199°
2026-05-05 00:12 24.10615 55.56041 29358 ft 488 kts 198°
2026-05-05 00:13 24.07332 55.55067 29700 ft 490 kts 198°
2026-05-05 00:13 24.04071 55.54106 30056 ft 491 kts 198°
2026-05-05 00:13 24.00776 55.53135 30471 ft 489 kts 198°
2026-05-05 00:13 23.97489 55.52161 30907 ft 487 kts 199°
2026-05-05 00:14 23.94224 55.51188 31348 ft 485 kts 199°
2026-05-05 00:14 23.90968 55.50217 31761 ft 484 kts 199°
2026-05-05 00:14 23.87710 55.49247 32142 ft 484 kts 199°
2026-05-05 00:14 23.84463 55.48282 32537 ft 483 kts 199°
2026-05-05 00:15 23.81215 55.47315 32945 ft 482 kts 199°
2026-05-05 00:15 23.78025 55.46364 33343 ft 481 kts 199°
2026-05-05 00:15 23.74801 55.45403 33734 ft 480 kts 199°
2026-05-05 00:16 23.68313 55.43468 33788 ft 483 kts 199°
2026-05-05 00:16 23.61845 55.41545 33784 ft 479 kts 199°
2026-05-05 00:17 23.55400 55.39701 33784 ft 480 kts 194°
2026-05-05 00:17 23.48671 55.39466 33794 ft 489 kts 178°
2026-05-05 00:18 23.42037 55.41128 33787 ft 495 kts 167°
2026-05-05 00:18 23.35418 55.43268 33790 ft 497 kts 167°
2026-05-05 00:19 23.28777 55.45410 33788 ft 498 kts 167°
2026-05-05 00:19 23.22117 55.47523 33786 ft 499 kts 167°
2026-05-05 00:20 23.15435 55.49630 33782 ft 500 kts 167°
2026-05-05 00:20 23.08739 55.51742 33775 ft 501 kts 167°
2026-05-05 00:21 23.02043 55.53849 33779 ft 500 kts 167°
2026-05-05 00:21 22.95386 55.55886 33779 ft 499 kts 168°
2026-05-05 00:22 22.88687 55.57920 33786 ft 498 kts 167°
2026-05-05 00:22 22.82019 55.59952 33784 ft 497 kts 167°
2026-05-05 00:23 22.75364 55.61981 33769 ft 496 kts 167°
2026-05-05 00:23 22.68758 55.63995 33770 ft 496 kts 167°
2026-05-05 00:24 22.62117 55.66016 33775 ft 495 kts 167°
2026-05-05 00:24 22.56229 55.67817 33771 ft 495 kts 167°
2026-05-05 00:25 22.49578 55.69857 33775 ft 495 kts 167°
2026-05-05 00:25 22.42991 55.71875 33761 ft 495 kts 167°
2026-05-05 00:26 22.36359 55.73904 33767 ft 495 kts 167°
2026-05-05 00:26 22.29726 55.75931 33765 ft 495 kts 167°
2026-05-05 00:27 22.23012 55.77505 33755 ft 492 kts 176°
2026-05-05 00:27 22.16200 55.78138 33760 ft 491 kts 178°
2026-05-05 00:28 22.09383 55.78770 33762 ft 492 kts 177°
2026-05-05 00:28 22.02555 55.79445 33771 ft 492 kts 177°
2026-05-05 00:29 21.95774 55.80131 33761 ft 493 kts 177°
2026-05-05 00:29 21.88935 55.80820 33758 ft 493 kts 176°
2026-05-05 00:30 21.82108 55.81506 33765 ft 493 kts 177°
2026-05-05 00:30 21.75264 55.82192 33765 ft 493 kts 177°
2026-05-05 00:31 21.68437 55.82875 33766 ft 493 kts 177°
2026-05-05 00:31 21.61594 55.83545 33755 ft 493 kts 177°
2026-05-05 00:32 21.54757 55.84211 33769 ft 493 kts 177°
2026-05-05 00:32 21.47923 55.84878 33761 ft 493 kts 177°
2026-05-05 00:33 21.41094 55.85545 33765 ft 493 kts 176°
2026-05-05 00:33 21.34251 55.86213 33761 ft 493 kts 176°
2026-05-05 00:34 21.27459 55.86874 33752 ft 493 kts 177°
2026-05-05 00:34 21.20616 55.87535 33759 ft 493 kts 177°
2026-05-05 00:35 21.13757 55.88194 33761 ft 493 kts 177°
2026-05-05 00:35 21.06919 55.88850 33758 ft 493 kts 176°
2026-05-05 00:36 21.00126 55.89502 33763 ft 493 kts 176°
2026-05-05 00:36 20.93278 55.90160 33763 ft 493 kts 176°
2026-05-05 00:37 20.86427 55.90816 33760 ft 494 kts 176°
2026-05-05 00:37 20.79591 55.91483 33764 ft 494 kts 176°
2026-05-05 00:38 20.72746 55.92159 33761 ft 494 kts 176°
2026-05-05 00:38 20.65890 55.92833 33759 ft 494 kts 176°
2026-05-05 00:39 20.59086 55.93501 33759 ft 494 kts 176°
2026-05-05 00:39 20.52218 55.94174 33755 ft 494 kts 176°
2026-05-05 00:40 20.45376 55.94843 33758 ft 493 kts 176°
2026-05-05 00:40 20.38581 55.95508 33757 ft 493 kts 176°
2026-05-05 00:41 20.31742 55.96176 33756 ft 493 kts 176°
2026-05-05 00:41 20.24897 55.96833 33759 ft 493 kts 176°
2026-05-05 00:42 20.18063 55.97481 33758 ft 493 kts 176°
2026-05-05 00:42 20.11267 55.98127 33759 ft 493 kts 176°
2026-05-05 00:43 20.04430 55.98558 33763 ft 491 kts 180°
2026-05-05 00:43 19.97585 55.98696 33762 ft 491 kts 181°
2026-05-05 00:44 19.90747 55.98832 33756 ft 491 kts 180°
2026-05-05 00:44 19.83908 55.98991 33759 ft 491 kts 180°
2026-05-05 00:45 19.77070 55.99159 33763 ft 491 kts 180°
2026-05-05 00:45 19.70270 55.99325 33760 ft 491 kts 180°
2026-05-05 00:46 19.63436 55.99490 33767 ft 491 kts 180°
2026-05-05 00:46 19.56598 55.99655 33765 ft 491 kts 180°
2026-05-05 00:47 19.49896 55.98757 33759 ft 486 kts 198°
2026-05-05 00:47 19.43774 55.95826 33773 ft 482 kts 211°
2026-05-05 00:48 19.38028 55.92228 33764 ft 483 kts 212°
2026-05-05 00:48 19.32211 55.88637 33771 ft 484 kts 211°
2026-05-05 00:49 19.26356 55.85080 33773 ft 485 kts 211°
2026-05-05 00:49 19.20494 55.81533 33772 ft 485 kts 211°
2026-05-05 00:50 19.14635 55.77988 33766 ft 485 kts 211°
2026-05-05 00:50 19.08763 55.74434 33769 ft 485 kts 211°
2026-05-05 00:51 19.02900 55.70894 33772 ft 486 kts 211°
2026-05-05 00:51 18.97025 55.67360 33772 ft 486 kts 210°
2026-05-05 00:52 18.91155 55.63834 33777 ft 486 kts 211°
2026-05-05 00:52 18.85319 55.60328 33777 ft 485 kts 211°
2026-05-05 00:53 18.79451 55.56805 33778 ft 485 kts 210°
2026-05-05 00:53 18.73568 55.53276 33781 ft 485 kts 210°
2026-05-05 00:54 18.67684 55.49748 33784 ft 486 kts 210°
2026-05-05 00:54 18.61802 55.46225 33778 ft 486 kts 210°
2026-05-05 00:55 18.55921 55.42705 33780 ft 486 kts 210°
2026-05-05 00:55 18.50078 55.39211 33785 ft 486 kts 210°
2026-05-05 00:56 18.44203 55.35700 33781 ft 486 kts 210°
2026-05-05 00:56 18.38320 55.32186 33784 ft 486 kts 210°
2026-05-05 00:57 18.33422 55.29264 33786 ft 486 kts 210°
2026-05-05 00:57 18.27546 55.25758 33786 ft 486 kts 210°
2026-05-05 00:58 18.21666 55.22251 33789 ft 486 kts 210°
2026-05-05 00:58 18.15777 55.18741 33790 ft 486 kts 210°
2026-05-05 00:59 18.09668 55.15670 33792 ft 487 kts 204°
2026-05-05 00:59 18.03458 55.12935 33802 ft 487 kts 203°
2026-05-05 01:00 17.97202 55.10166 33801 ft 488 kts 204°
2026-05-05 01:00 17.90953 55.07372 33805 ft 488 kts 204°
2026-05-05 01:01 17.84704 55.04569 33807 ft 488 kts 204°
2026-05-05 01:01 17.78475 55.01777 33806 ft 488 kts 204°
2026-05-05 01:02 17.72231 54.98982 33807 ft 488 kts 204°
2026-05-05 01:02 17.66025 54.96207 33820 ft 488 kts 204°
2026-05-05 01:03 17.59768 54.93411 33822 ft 488 kts 204°
2026-05-05 01:03 17.53517 54.90620 33833 ft 488 kts 204°
2026-05-05 01:04 17.47266 54.87830 33826 ft 488 kts 203°
2026-05-05 01:04 17.37886 54.83649 33833 ft 488 kts 203°
2026-05-05 01:05 17.31641 54.80867 33840 ft 487 kts 203°
2026-05-05 01:05 17.25500 54.77879 33828 ft 487 kts 211°
2026-05-05 01:06 17.19842 54.74085 33835 ft 486 kts 213°
2026-05-05 01:06 17.14186 54.70236 33828 ft 485 kts 213°
2026-05-05 01:07 17.08515 54.66428 33825 ft 484 kts 213°
2026-05-05 01:07 17.02834 54.62635 33839 ft 484 kts 213°
2026-05-05 01:08 16.97158 54.58846 33818 ft 484 kts 213°
2026-05-05 01:08 16.91485 54.55059 33808 ft 483 kts 213°
2026-05-05 01:09 16.85814 54.51277 33803 ft 484 kts 213°
2026-05-05 01:09 16.80136 54.47490 33799 ft 484 kts 212°
2026-05-05 01:10 16.74451 54.43699 33816 ft 485 kts 212°
2026-05-05 01:10 16.68765 54.39909 33791 ft 486 kts 212°
2026-05-05 01:11 16.63102 54.36138 33793 ft 486 kts 212°
2026-05-05 01:11 16.57397 54.32341 33796 ft 486 kts 213°
2026-05-05 01:12 16.51692 54.28548 33801 ft 487 kts 213°
2026-05-05 01:12 16.45972 54.24746 33802 ft 488 kts 213°
2026-05-05 01:13 16.40244 54.20942 33815 ft 488 kts 212°
2026-05-05 01:13 16.34516 54.17141 33803 ft 489 kts 212°
2026-05-05 01:14 16.28768 54.13330 33802 ft 489 kts 213°
2026-05-05 01:14 16.23063 54.09549 33804 ft 489 kts 212°
2026-05-05 01:15 16.17313 54.05741 33808 ft 490 kts 212°
2026-05-05 01:15 16.11558 54.01932 33829 ft 490 kts 212°
2026-05-05 01:16 16.05804 53.98127 33808 ft 490 kts 212°
2026-05-05 01:16 16.00044 53.94320 33805 ft 490 kts 212°
2026-05-05 01:17 15.94282 53.90514 33809 ft 490 kts 212°
2026-05-05 01:17 15.88524 53.86713 33810 ft 491 kts 212°
2026-05-05 01:18 15.82759 53.82884 33809 ft 491 kts 213°
2026-05-05 01:18 15.77047 53.79062 33807 ft 492 kts 213°
2026-05-05 01:19 15.71298 53.75219 33825 ft 492 kts 213°
2026-05-05 01:19 15.65530 53.71372 33814 ft 492 kts 213°
2026-05-05 01:20 15.59766 53.67530 33810 ft 492 kts 213°
2026-05-05 01:20 15.53993 53.63685 33828 ft 493 kts 212°
2026-05-05 01:21 15.48253 53.59864 33825 ft 493 kts 212°
2026-05-05 01:21 15.42466 53.56019 33824 ft 493 kts 212°
2026-05-05 01:22 15.36635 53.52259 33817 ft 493 kts 211°
2026-05-05 01:22 15.30815 53.48555 33817 ft 494 kts 211°
2026-05-05 01:23 15.24967 53.44822 33833 ft 493 kts 212°
2026-05-05 01:23 15.19125 53.41082 33817 ft 493 kts 212°
2026-05-05 01:24 15.13280 53.37340 33819 ft 493 kts 212°
2026-05-05 01:24 15.07441 53.33604 33837 ft 493 kts 212°
2026-05-05 01:25 15.01603 53.29873 33817 ft 493 kts 211°
2026-05-05 01:25 14.95792 53.26161 33826 ft 493 kts 211°
2026-05-05 01:26 14.89959 53.22437 33824 ft 493 kts 211°
2026-05-05 01:26 14.84110 53.18705 33817 ft 494 kts 211°
2026-05-05 01:27 14.78260 53.14976 33825 ft 494 kts 211°
2026-05-05 01:27 14.72411 53.11248 33841 ft 494 kts 211°
2026-05-05 01:28 14.66547 53.07513 33823 ft 495 kts 211°
2026-05-05 01:28 14.60693 53.03769 33827 ft 495 kts 211°
2026-05-05 01:29 14.54885 53.00033 33844 ft 495 kts 211°
2026-05-05 01:29 14.49029 52.96267 33825 ft 495 kts 211°
2026-05-05 01:30 14.43167 52.92503 33848 ft 495 kts 211°
2026-05-05 01:30 14.37306 52.88744 33829 ft 496 kts 211°
2026-05-05 01:31 14.31444 52.84987 33826 ft 496 kts 211°
2026-05-05 01:31 14.25619 52.81256 33849 ft 496 kts 211°
2026-05-05 01:32 14.19746 52.77495 33828 ft 496 kts 211°
2026-05-05 01:32 14.13879 52.73742 33832 ft 496 kts 211°
2026-05-05 01:33 14.08006 52.69987 33855 ft 496 kts 211°
2026-05-05 01:33 14.02134 52.66234 33832 ft 497 kts 211°
2026-05-05 01:34 13.96262 52.62484 33831 ft 496 kts 211°
2026-05-05 01:34 13.90382 52.58731 33852 ft 496 kts 211°
2026-05-05 01:35 13.84514 52.54988 33833 ft 497 kts 211°
2026-05-05 01:35 13.78644 52.51246 33840 ft 497 kts 211°
2026-05-05 01:36 13.72804 52.47526 33857 ft 497 kts 211°
2026-05-05 01:36 13.66924 52.43781 33837 ft 497 kts 211°
2026-05-05 01:37 13.61036 52.40034 33843 ft 497 kts 211°
2026-05-05 01:37 13.55156 52.36294 33848 ft 497 kts 211°
2026-05-05 01:38 13.49294 52.32568 33843 ft 498 kts 211°
2026-05-05 01:38 13.43409 52.28829 33841 ft 498 kts 211°
2026-05-05 01:39 13.37512 52.25085 33863 ft 497 kts 211°
2026-05-05 01:39 13.31617 52.21358 33844 ft 497 kts 210°
2026-05-05 01:40 13.25723 52.17638 33848 ft 497 kts 210°
2026-05-05 01:40 13.19824 52.13915 33864 ft 497 kts 211°
2026-05-05 01:41 13.13976 52.10223 33842 ft 497 kts 210°
2026-05-05 01:41 13.08092 52.06511 33847 ft 497 kts 210°
2026-05-05 01:42 13.02200 52.02796 33867 ft 497 kts 211°
2026-05-05 01:42 12.96300 51.99077 33843 ft 497 kts 210°
2026-05-05 01:43 12.90403 51.95364 33850 ft 497 kts 210°
2026-05-05 01:43 12.84534 51.91670 33851 ft 497 kts 210°
2026-05-05 01:44 12.78636 51.87959 33845 ft 498 kts 210°
2026-05-05 01:44 12.73679 51.84843 33847 ft 498 kts 210°
2026-05-05 01:45 12.67802 51.81149 33846 ft 498 kts 210°
2026-05-05 01:45 12.61884 51.77431 33838 ft 499 kts 210°
2026-05-05 01:46 12.55967 51.73717 33837 ft 499 kts 210°
2026-05-05 01:46 12.50046 51.70003 33840 ft 499 kts 210°
2026-05-05 01:47 12.44119 51.66285 33837 ft 499 kts 210°
2026-05-05 01:47 12.38236 51.62598 33838 ft 499 kts 210°
2026-05-05 01:48 12.32312 51.58887 33840 ft 499 kts 210°
2026-05-05 01:48 12.26389 51.55179 33840 ft 499 kts 210°
2026-05-05 01:49 12.20471 51.51475 33831 ft 498 kts 210°
2026-05-05 01:49 12.14558 51.47776 33834 ft 498 kts 210°
2026-05-05 01:50 12.08645 51.44079 33830 ft 497 kts 210°
2026-05-05 01:50 12.02775 51.40411 33832 ft 497 kts 210°
2026-05-05 01:51 11.96844 51.36707 34114 ft 501 kts 210°
2026-05-05 01:51 11.93883 51.34857 34515 ft 498 kts 210°
2026-05-05 01:51 11.90931 51.33013 34979 ft 494 kts 210°
2026-05-05 01:52 11.88003 51.31183 35426 ft 491 kts 210°
2026-05-05 01:52 11.85099 51.29369 35752 ft 490 kts 210°
2026-05-05 01:52 11.79241 51.25714 35834 ft 494 kts 210°
2026-05-05 01:53 11.73435 51.22092 35839 ft 491 kts 210°
2026-05-05 01:53 11.67619 51.18464 35846 ft 489 kts 210°
2026-05-05 01:54 11.61814 51.14847 35857 ft 488 kts 210°
2026-05-05 01:54 11.56013 51.11232 35863 ft 489 kts 210°
2026-05-05 01:55 11.50198 51.07611 35859 ft 489 kts 210°
2026-05-05 01:55 11.44387 51.03993 35877 ft 490 kts 210°
2026-05-05 01:56 11.38552 51.00363 35881 ft 491 kts 210°
2026-05-05 01:56 11.32702 50.96721 35887 ft 492 kts 210°
2026-05-05 01:57 11.26849 50.93075 35891 ft 493 kts 210°
2026-05-05 01:57 11.20988 50.89425 35889 ft 494 kts 210°
2026-05-05 01:58 11.15128 50.85778 35894 ft 494 kts 210°
2026-05-05 01:58 11.09261 50.82128 35886 ft 494 kts 210°
2026-05-05 01:59 11.03429 50.78502 35893 ft 494 kts 210°
2026-05-05 01:59 10.97570 50.74861 35889 ft 494 kts 210°
2026-05-05 02:00 10.91712 50.71222 35890 ft 493 kts 210°
2026-05-05 02:00 10.85853 50.67584 35898 ft 493 kts 210°
2026-05-05 02:01 10.79993 50.63948 35893 ft 493 kts 210°
2026-05-05 02:01 10.74136 50.60314 35893 ft 493 kts 210°
2026-05-05 02:02 10.68282 50.56685 35896 ft 492 kts 210°
2026-05-05 02:02 10.62425 50.53055 35895 ft 492 kts 210°
2026-05-05 02:03 10.56576 50.49432 35901 ft 492 kts 210°
2026-05-05 02:03 10.50733 50.45814 35896 ft 492 kts 210°
2026-05-05 02:04 10.44880 50.42191 35893 ft 492 kts 210°
2026-05-05 02:04 10.39058 50.38590 35899 ft 492 kts 210°
2026-05-05 02:05 10.33212 50.34975 35896 ft 492 kts 210°
2026-05-05 02:05 10.27353 50.31354 35896 ft 492 kts 210°
2026-05-05 02:06 10.21499 50.27737 35898 ft 492 kts 210°
2026-05-05 02:06 10.15642 50.24120 35900 ft 493 kts 210°
2026-05-05 02:07 10.09790 50.20507 35903 ft 493 kts 210°
2026-05-05 02:07 10.03967 50.16915 35904 ft 493 kts 210°
2026-05-05 02:08 9.98097 50.13295 35911 ft 493 kts 210°
2026-05-05 02:08 9.92233 50.09680 35911 ft 493 kts 210°
2026-05-05 02:09 9.86359 50.06060 35909 ft 493 kts 210°
2026-05-05 02:09 9.80490 50.02445 35915 ft 493 kts 210°
2026-05-05 02:10 9.74653 49.98851 35912 ft 493 kts 210°
2026-05-05 02:10 9.68784 49.95239 35917 ft 493 kts 210°
2026-05-05 02:11 9.62916 49.91629 35918 ft 493 kts 210°
2026-05-05 02:11 9.57045 49.88018 35915 ft 493 kts 210°
2026-05-05 02:12 9.48242 49.82608 35912 ft 493 kts 210°
2026-05-05 02:13 9.42416 49.79028 35917 ft 493 kts 210°
2026-05-05 02:13 9.36549 49.75425 35918 ft 493 kts 210°
2026-05-05 02:14 9.30682 49.71823 35911 ft 493 kts 210°
2026-05-05 02:14 9.24814 49.68221 35914 ft 493 kts 210°
2026-05-05 02:15 9.18950 49.64627 35916 ft 493 kts 210°
2026-05-05 02:15 9.13072 49.61033 35915 ft 493 kts 210°
2026-05-05 02:16 9.07194 49.57439 35913 ft 494 kts 210°
2026-05-05 02:16 9.01308 49.53841 35912 ft 494 kts 210°
2026-05-05 02:17 8.95433 49.50249 35919 ft 494 kts 210°
2026-05-05 02:17 8.89543 49.46650 35917 ft 494 kts 210°
2026-05-05 02:18 8.83663 49.43058 35919 ft 494 kts 210°
2026-05-05 02:18 8.77808 49.39483 35919 ft 494 kts 210°
2026-05-05 02:19 8.71920 49.35889 35913 ft 494 kts 210°
2026-05-05 02:19 8.66027 49.32292 35916 ft 494 kts 210°
2026-05-05 02:20 8.60139 49.28702 35911 ft 494 kts 210°
2026-05-05 02:20 8.54294 49.25140 35912 ft 494 kts 210°
2026-05-05 02:21 8.48406 49.21552 35907 ft 493 kts 210°
2026-05-05 02:21 8.42529 49.17971 35910 ft 493 kts 210°
2026-05-05 02:22 8.36653 49.14392 35911 ft 493 kts 210°
2026-05-05 02:22 8.30780 49.10816 35908 ft 493 kts 210°
2026-05-05 02:23 8.24902 49.07238 35914 ft 492 kts 210°
2026-05-05 02:23 8.19072 49.03691 35910 ft 492 kts 210°
2026-05-05 02:24 8.13199 49.00118 35913 ft 492 kts 210°
2026-05-05 02:24 8.07340 48.96556 35915 ft 492 kts 210°
2026-05-05 02:25 8.01478 48.92993 35916 ft 492 kts 210°
2026-05-05 02:25 7.95610 48.89427 35920 ft 492 kts 210°
2026-05-05 02:26 7.89780 48.85887 35923 ft 492 kts 210°
2026-05-05 02:26 7.83922 48.82329 35926 ft 492 kts 210°
2026-05-05 02:27 7.78050 48.78765 35929 ft 492 kts 210°
2026-05-05 02:27 7.72175 48.75199 35925 ft 492 kts 210°
2026-05-05 02:28 7.66303 48.71637 35926 ft 492 kts 210°
2026-05-05 02:28 7.60429 48.68075 35917 ft 492 kts 210°
2026-05-05 02:29 7.54555 48.64514 35917 ft 492 kts 210°
2026-05-05 02:29 7.48723 48.60979 35914 ft 492 kts 210°
2026-05-05 02:30 7.42847 48.57419 35916 ft 492 kts 210°
2026-05-05 02:30 7.36984 48.53866 35916 ft 492 kts 210°
2026-05-05 02:31 7.31129 48.50305 35916 ft 491 kts 210°
2026-05-05 02:31 7.25299 48.46706 35905 ft 491 kts 210°
2026-05-05 02:32 7.19474 48.43101 35905 ft 491 kts 210°
2026-05-05 02:32 7.14638 48.40114 35906 ft 491 kts 210°
2026-05-05 02:33 7.08811 48.36521 35907 ft 490 kts 210°
2026-05-05 02:33 7.02041 48.32349 35903 ft 490 kts 210°
2026-05-05 02:34 6.97201 48.29367 35900 ft 490 kts 210°
2026-05-05 02:34 6.91378 48.25780 35901 ft 491 kts 210°
2026-05-05 02:35 6.85540 48.22185 35902 ft 491 kts 210°
2026-05-05 02:35 6.79712 48.18597 35901 ft 491 kts 210°
2026-05-05 02:36 6.73910 48.15027 35900 ft 492 kts 211°
2026-05-05 02:36 6.68069 48.11432 35905 ft 492 kts 211°
2026-05-05 02:37 6.62214 48.07831 35901 ft 493 kts 211°
2026-05-05 02:37 6.56362 48.04232 35901 ft 493 kts 211°
2026-05-05 02:38 6.50505 48.00632 35900 ft 493 kts 211°
2026-05-05 02:38 6.44641 47.97028 35903 ft 494 kts 211°
2026-05-05 02:39 6.38808 47.93444 35905 ft 495 kts 211°
2026-05-05 02:39 6.32931 47.89834 35901 ft 495 kts 211°
2026-05-05 02:40 6.27048 47.86221 35900 ft 496 kts 211°
2026-05-05 02:40 6.21160 47.82607 35902 ft 496 kts 211°
2026-05-05 02:41 6.15279 47.78998 35904 ft 495 kts 211°
2026-05-05 02:41 6.09405 47.75393 35900 ft 494 kts 211°
2026-05-05 02:42 6.03544 47.71798 35901 ft 493 kts 211°
2026-05-05 02:42 5.97691 47.68208 35902 ft 492 kts 211°
2026-05-05 02:43 5.91856 47.64630 35904 ft 491 kts 211°
2026-05-05 02:43 5.86059 47.61077 35904 ft 490 kts 211°
2026-05-05 02:44 5.80239 47.57510 35897 ft 490 kts 211°
2026-05-05 02:44 5.74398 47.53931 35908 ft 491 kts 211°
2026-05-05 02:45 5.68566 47.50357 35905 ft 491 kts 211°
2026-05-05 02:45 5.62714 47.46784 35904 ft 492 kts 211°
2026-05-05 02:46 5.56882 47.43264 35904 ft 493 kts 210°
2026-05-05 02:46 5.51004 47.39724 35909 ft 493 kts 211°
2026-05-05 02:47 5.45107 47.36167 35910 ft 494 kts 211°
2026-05-05 02:47 5.39212 47.32608 35909 ft 495 kts 211°
2026-05-05 02:48 5.33345 47.29066 35903 ft 495 kts 211°
2026-05-05 02:48 5.27436 47.25500 35908 ft 495 kts 211°
2026-05-05 02:49 5.21532 47.21938 35911 ft 495 kts 211°
2026-05-05 02:49 5.15624 47.18374 35908 ft 495 kts 211°
2026-05-05 02:50 5.09717 47.14812 35911 ft 495 kts 211°
2026-05-05 02:50 5.03862 47.11281 35916 ft 494 kts 211°
2026-05-05 02:51 4.97952 47.07718 35916 ft 494 kts 211°
2026-05-05 02:51 4.92061 47.04168 35914 ft 494 kts 211°
2026-05-05 02:52 4.86156 47.00610 35911 ft 495 kts 211°
2026-05-05 02:52 4.80261 46.97058 35915 ft 495 kts 211°
2026-05-05 02:53 4.74360 46.93504 35917 ft 494 kts 211°
2026-05-05 02:53 4.68460 46.89951 35914 ft 494 kts 211°
2026-05-05 02:54 4.62607 46.86427 35913 ft 494 kts 211°
2026-05-05 02:54 4.56705 46.82874 35920 ft 494 kts 211°
2026-05-05 02:55 4.50812 46.79327 35925 ft 494 kts 211°
2026-05-05 02:55 4.44913 46.75777 35918 ft 494 kts 211°
2026-05-05 02:56 4.39065 46.72259 35917 ft 493 kts 211°
2026-05-05 02:56 4.33186 46.68723 35918 ft 492 kts 211°
2026-05-05 02:57 4.27318 46.65194 35919 ft 492 kts 211°
2026-05-05 02:57 4.21452 46.61666 35915 ft 491 kts 211°
2026-05-05 02:58 4.15591 46.58143 35918 ft 491 kts 211°
2026-05-05 02:58 4.09728 46.54619 35919 ft 491 kts 211°
2026-05-05 02:59 4.03862 46.51093 35925 ft 492 kts 211°
2026-05-05 02:59 3.97986 46.47562 35920 ft 493 kts 211°
2026-05-05 03:00 3.92109 46.44032 35919 ft 493 kts 211°
2026-05-05 03:00 3.86216 46.40492 35927 ft 494 kts 211°
2026-05-05 03:01 3.80363 46.36977 35928 ft 494 kts 211°
2026-05-05 03:01 3.74460 46.33432 35923 ft 495 kts 211°
2026-05-05 03:02 3.68555 46.29887 35921 ft 495 kts 211°
2026-05-05 03:02 3.62653 46.26344 35930 ft 494 kts 211°
2026-05-05 03:03 3.56760 46.22807 35931 ft 494 kts 211°
2026-05-05 03:03 3.50861 46.19266 35924 ft 493 kts 211°
2026-05-05 03:04 3.44974 46.15734 35924 ft 493 kts 211°
2026-05-05 03:04 3.39094 46.12207 35929 ft 492 kts 211°
2026-05-05 03:05 3.33220 46.08683 35929 ft 491 kts 211°
2026-05-05 03:05 3.27391 46.05187 35922 ft 492 kts 211°
2026-05-05 03:06 3.21522 46.01667 35925 ft 492 kts 211°
2026-05-05 03:06 3.15646 45.98144 35931 ft 492 kts 211°
2026-05-05 03:07 3.09762 45.94617 35933 ft 493 kts 211°
2026-05-05 03:07 3.03864 45.91081 35927 ft 493 kts 211°
2026-05-05 03:08 2.97969 45.87548 35926 ft 494 kts 211°
2026-05-05 03:08 2.92117 45.84041 35927 ft 494 kts 211°
2026-05-05 03:09 2.86218 45.80506 35928 ft 494 kts 211°
2026-05-05 03:09 2.80328 45.76977 35930 ft 494 kts 211°
2026-05-05 03:10 2.74431 45.73444 35927 ft 494 kts 211°
2026-05-05 03:10 2.68538 45.69914 35924 ft 493 kts 211°
2026-05-05 03:11 2.62642 45.66382 35928 ft 493 kts 211°
2026-05-05 03:11 2.56759 45.62859 35926 ft 493 kts 211°
2026-05-05 03:12 2.50871 45.59333 35926 ft 493 kts 211°
2026-05-05 03:12 2.44978 45.55805 35928 ft 493 kts 211°
2026-05-05 03:13 2.39125 45.52301 35925 ft 493 kts 211°
2026-05-05 03:13 2.33240 45.48778 35927 ft 493 kts 211°
2026-05-05 03:14 2.27356 45.45256 35923 ft 493 kts 211°
2026-05-05 03:14 2.21472 45.41734 35923 ft 493 kts 211°
2026-05-05 03:15 2.15628 45.38236 35918 ft 493 kts 211°
2026-05-05 03:15 2.09736 45.34710 35925 ft 493 kts 211°
2026-05-05 03:16 2.03844 45.31183 35919 ft 493 kts 211°
2026-05-05 03:16 1.98009 45.27557 35918 ft 494 kts 213°
2026-05-05 03:17 1.92312 45.23713 35922 ft 494 kts 214°
2026-05-05 03:17 1.86657 45.19859 35911 ft 495 kts 214°
2026-05-05 03:18 1.80950 45.15992 35917 ft 495 kts 214°
2026-05-05 03:18 1.75233 45.12136 35921 ft 496 kts 214°
2026-05-05 03:19 1.66627 45.06339 35922 ft 497 kts 214°
2026-05-05 03:19 1.60888 45.02473 35916 ft 498 kts 214°
2026-05-05 03:20 1.55132 44.98595 35914 ft 498 kts 214°
2026-05-05 03:20 1.50349 44.95371 35921 ft 498 kts 214°
2026-05-05 03:21 1.43661 44.90865 35923 ft 499 kts 214°
2026-05-05 03:21 1.37904 44.86987 35922 ft 499 kts 214°
2026-05-05 03:22 1.32149 44.83110 35917 ft 499 kts 214°
2026-05-05 03:22 1.27333 44.79865 35935 ft 499 kts 214°
2026-05-05 03:23 1.21576 44.75987 35920 ft 499 kts 214°
2026-05-05 03:23 1.15812 44.72105 35930 ft 499 kts 214°
2026-05-05 03:24 1.10086 44.68249 35922 ft 499 kts 214°
2026-05-05 03:24 1.04325 44.64368 35913 ft 499 kts 214°
2026-05-05 03:25 0.98566 44.60489 35925 ft 499 kts 214°
2026-05-05 03:25 0.92794 44.56603 35930 ft 499 kts 214°
2026-05-05 03:26 0.87033 44.52723 35927 ft 499 kts 214°
2026-05-05 03:26 0.81309 44.48868 35928 ft 500 kts 214°
2026-05-05 03:27 0.75534 44.44980 35925 ft 500 kts 214°
2026-05-05 03:27 0.69761 44.41092 35926 ft 500 kts 214°
2026-05-05 03:28 0.63984 44.37203 35927 ft 500 kts 214°
2026-05-05 03:28 0.58213 44.33317 35924 ft 501 kts 214°
2026-05-05 03:29 0.52427 44.29420 35920 ft 501 kts 214°
2026-05-05 03:29 0.46642 44.25525 35923 ft 501 kts 214°
2026-05-05 03:30 0.40907 44.21663 35921 ft 501 kts 214°
2026-05-05 03:30 0.35129 44.17772 35925 ft 500 kts 214°
2026-05-05 03:31 0.29352 44.13879 35929 ft 500 kts 214°
2026-05-05 03:31 0.23580 44.09974 35922 ft 500 kts 214°
2026-05-05 03:32 0.17825 44.06078 35918 ft 500 kts 214°
2026-05-05 03:32 0.12068 44.02180 35923 ft 500 kts 214°
2026-05-05 03:33 0.06311 43.98285 35926 ft 499 kts 214°
2026-05-05 03:33 0.00556 43.94390 35928 ft 499 kts 214°
2026-05-05 03:34 -0.05160 43.90522 35921 ft 499 kts 213°
2026-05-05 03:34 -0.10918 43.86626 35925 ft 500 kts 213°
2026-05-05 03:35 -0.16678 43.82729 35920 ft 500 kts 213°
2026-05-05 03:35 -0.22417 43.78845 35930 ft 500 kts 213°
2026-05-05 03:36 -0.28184 43.74942 35934 ft 501 kts 213°
2026-05-05 03:36 -0.33957 43.71036 35930 ft 501 kts 213°
2026-05-05 03:37 -0.39725 43.67133 35923 ft 501 kts 213°
2026-05-05 03:37 -0.45515 43.63214 35921 ft 501 kts 213°
2026-05-05 03:38 -0.51254 43.59330 35925 ft 501 kts 213°
2026-05-05 03:38 -0.57023 43.55426 35935 ft 500 kts 213°
2026-05-05 03:39 -0.62786 43.51525 35931 ft 500 kts 213°
2026-05-05 03:39 -0.68560 43.47618 35930 ft 500 kts 213°
2026-05-05 03:40 -0.74275 43.43750 35926 ft 500 kts 213°
2026-05-05 03:40 -0.80033 43.39853 35929 ft 499 kts 213°
2026-05-05 03:41 -0.85786 43.35959 35934 ft 499 kts 213°
2026-05-05 03:41 -0.91530 43.32071 35937 ft 499 kts 213°
2026-05-05 03:42 -0.97271 43.28184 35929 ft 499 kts 213°
2026-05-05 03:42 -1.03023 43.24290 35932 ft 499 kts 213°
2026-05-05 03:43 -1.08761 43.20406 35929 ft 498 kts 213°
2026-05-05 03:43 -1.14505 43.16518 35930 ft 498 kts 213°
2026-05-05 03:44 -1.20216 43.12651 35938 ft 498 kts 213°
2026-05-05 03:44 -1.25956 43.08765 35938 ft 499 kts 213°
2026-05-05 03:45 -1.31705 43.04872 35935 ft 499 kts 213°
2026-05-05 03:45 -1.37451 43.00981 35934 ft 499 kts 213°
2026-05-05 03:46 -1.43203 42.97086 35935 ft 499 kts 213°
2026-05-05 03:46 -1.48960 42.93186 35936 ft 499 kts 213°
2026-05-05 03:47 -1.54709 42.89293 35939 ft 499 kts 213°
2026-05-05 03:47 -1.60449 42.85405 35937 ft 498 kts 213°
2026-05-05 03:48 -1.66193 42.81514 35931 ft 498 kts 213°
2026-05-05 03:48 -1.71901 42.77647 35939 ft 498 kts 213°
2026-05-05 03:49 -1.77633 42.73763 35935 ft 498 kts 213°
2026-05-05 03:49 -1.83363 42.69881 35936 ft 498 kts 213°
2026-05-05 03:50 -1.89097 42.65996 35938 ft 497 kts 213°
2026-05-05 03:50 -1.94829 42.62110 35935 ft 497 kts 213°
2026-05-05 03:51 -2.00559 42.58226 35937 ft 497 kts 213°
2026-05-05 03:51 -2.06256 42.54297 35931 ft 497 kts 214°
2026-05-05 03:52 -2.11942 42.50339 35939 ft 497 kts 214°
2026-05-05 03:52 -2.17588 42.46420 35943 ft 497 kts 214°
2026-05-05 03:53 -2.23270 42.42468 35948 ft 497 kts 214°
2026-05-05 03:53 -2.28856 42.38381 35946 ft 497 kts 216°
2026-05-05 03:54 -2.34404 42.34243 35939 ft 497 kts 216°
2026-05-05 03:54 -2.39953 42.30124 35942 ft 497 kts 215°
2026-05-05 03:55 -2.45492 42.26033 35949 ft 497 kts 215°
2026-05-05 03:55 -2.51059 42.21930 35950 ft 497 kts 215°
2026-05-05 03:56 -2.56626 42.17826 35945 ft 497 kts 215°
2026-05-05 03:56 -2.62193 42.13720 35946 ft 497 kts 215°
2026-05-05 03:57 -2.67766 42.09608 35952 ft 497 kts 215°
2026-05-05 03:57 -2.73297 42.05527 35951 ft 497 kts 215°
2026-05-05 03:58 -2.78866 42.01417 35948 ft 497 kts 215°
2026-05-05 03:58 -2.84437 41.97306 35953 ft 497 kts 215°
2026-05-05 03:59 -2.90008 41.93193 35951 ft 497 kts 215°
2026-05-05 03:59 -2.95574 41.89084 35951 ft 497 kts 215°
2026-05-05 04:00 -3.01142 41.84974 35955 ft 498 kts 215°
2026-05-05 04:00 -3.06684 41.80881 35957 ft 498 kts 215°
2026-05-05 04:01 -3.12252 41.76770 35955 ft 498 kts 215°
2026-05-05 04:01 -3.17826 41.72652 35950 ft 498 kts 215°
2026-05-05 04:02 -3.23397 41.68537 35954 ft 497 kts 215°
2026-05-05 04:02 -3.28960 41.64427 35954 ft 497 kts 215°
2026-05-05 04:03 -3.34526 41.60314 35956 ft 497 kts 215°
2026-05-05 04:03 -3.40085 41.56206 35958 ft 497 kts 215°
2026-05-05 04:04 -3.45646 41.52096 35952 ft 497 kts 214°
2026-05-05 04:04 -3.51212 41.47981 35954 ft 496 kts 214°
2026-05-05 04:05 -3.56769 41.43873 35956 ft 496 kts 214°
2026-05-05 04:05 -3.62286 41.39793 35956 ft 496 kts 214°
2026-05-05 04:06 -3.67839 41.35685 35959 ft 496 kts 214°
2026-05-05 04:06 -3.73393 41.31577 35957 ft 496 kts 214°
2026-05-05 04:07 -3.78956 41.27462 35962 ft 497 kts 214°
2026-05-05 04:07 -3.84521 41.23344 35963 ft 497 kts 214°
2026-05-05 04:08 -3.90097 41.19216 35962 ft 498 kts 214°
2026-05-05 04:08 -3.95642 41.15110 35962 ft 498 kts 214°
2026-05-05 04:09 -4.01300 41.11099 35961 ft 497 kts 210°
2026-05-05 04:09 -4.06214 41.08111 35965 ft 497 kts 209°
2026-05-05 04:10 -4.12149 41.04553 35961 ft 497 kts 209°
2026-05-05 04:10 -4.18066 41.00975 35965 ft 497 kts 209°
2026-05-05 04:11 -4.23990 40.97366 35964 ft 497 kts 209°
2026-05-05 04:11 -4.29892 40.93765 35964 ft 497 kts 209°
2026-05-05 04:12 -4.35805 40.90157 35967 ft 497 kts 209°
2026-05-05 04:12 -4.41668 40.86581 35966 ft 496 kts 209°
2026-05-05 04:13 -4.47577 40.82977 35967 ft 496 kts 209°
2026-05-05 04:13 -4.53462 40.79386 35967 ft 495 kts 209°
2026-05-05 04:14 -4.59351 40.75793 35967 ft 495 kts 209°
2026-05-05 04:14 -4.65236 40.72201 35965 ft 495 kts 209°
2026-05-05 04:15 -4.71083 40.68631 35970 ft 495 kts 209°
2026-05-05 04:15 -4.76969 40.65035 35970 ft 495 kts 209°
2026-05-05 04:16 -4.82829 40.61374 35974 ft 496 kts 213°
2026-05-05 04:16 -4.88286 40.57118 35981 ft 498 kts 217°
2026-05-05 04:17 -4.93705 40.52772 35969 ft 498 kts 217°
2026-05-05 04:17 -4.99148 40.48458 35974 ft 498 kts 216°
2026-05-05 04:18 -5.04574 40.44181 35974 ft 499 kts 216°
2026-05-05 04:18 -5.10037 40.39873 35972 ft 499 kts 216°
2026-05-05 04:19 -5.15657 40.35807 35978 ft 497 kts 212°
2026-05-05 04:19 -5.21436 40.31987 35975 ft 497 kts 211°
2026-05-05 04:20 -5.27218 40.28170 35978 ft 497 kts 211°
2026-05-05 04:20 -5.32991 40.24328 35980 ft 497 kts 211°
2026-05-05 04:21 -5.38700 40.20512 35977 ft 496 kts 211°
2026-05-05 04:21 -5.44446 40.16670 35977 ft 496 kts 211°
2026-05-05 04:22 -5.50184 40.12834 35981 ft 495 kts 211°
2026-05-05 04:22 -5.55917 40.09001 35977 ft 495 kts 211°
2026-05-05 04:23 -5.61648 40.05169 35985 ft 495 kts 211°
2026-05-05 04:23 -5.67354 40.01353 35984 ft 495 kts 211°
2026-05-05 04:24 -5.73083 39.97520 35984 ft 495 kts 211°
2026-05-05 04:25 -5.81688 39.91761 35986 ft 495 kts 211°
2026-05-05 04:25 -5.87429 39.87918 35986 ft 496 kts 211°
2026-05-05 04:26 -5.93176 39.84069 35987 ft 496 kts 211°
2026-05-05 04:26 -5.98926 39.80218 35987 ft 497 kts 211°
2026-05-05 04:27 -6.04677 39.76365 35986 ft 497 kts 211°
2026-05-05 04:27 -6.10433 39.72507 35985 ft 496 kts 211°
2026-05-05 04:28 -6.16177 39.68656 35985 ft 496 kts 211°
2026-05-05 04:28 -6.21910 39.64811 35989 ft 495 kts 211°
2026-05-05 04:29 -6.27605 39.60987 35989 ft 495 kts 212°
2026-05-05 04:29 -6.33328 39.57099 35992 ft 495 kts 212°
2026-05-05 04:30 -6.39031 39.53211 35990 ft 495 kts 212°
2026-05-05 04:30 -6.44736 39.49324 35992 ft 495 kts 212°
2026-05-05 04:31 -6.50402 39.45468 35996 ft 495 kts 212°
2026-05-05 04:31 -6.56098 39.41590 35994 ft 495 kts 212°
2026-05-05 04:32 -6.61800 39.37707 36000 ft 495 kts 212°
2026-05-05 04:32 -6.67495 39.33827 35996 ft 494 kts 212°
2026-05-05 04:33 -6.73194 39.29944 35998 ft 494 kts 212°
2026-05-05 04:33 -6.78895 39.26057 35993 ft 495 kts 212°
2026-05-05 04:34 -6.84589 39.22174 35997 ft 495 kts 212°
2026-05-05 04:34 -6.90281 39.18274 35993 ft 495 kts 213°
2026-05-05 04:35 -6.95838 39.14111 36351 ft 499 kts 216°
2026-05-05 04:35 -6.98582 39.11982 36759 ft 497 kts 216°
2026-05-05 04:35 -7.01305 39.09870 37189 ft 494 kts 216°
2026-05-05 04:35 -7.04000 39.07793 37606 ft 492 kts 216°
2026-05-05 04:36 -7.06721 39.05709 37941 ft 491 kts 215°
2026-05-05 04:36 -7.12205 39.01538 38016 ft 494 kts 215°
2026-05-05 04:37 -7.17692 38.97375 38012 ft 490 kts 215°
2026-05-05 04:37 -7.23127 38.93249 38021 ft 488 kts 215°
2026-05-05 04:38 -7.28508 38.89161 38025 ft 486 kts 215°
2026-05-05 04:38 -7.33908 38.85057 38027 ft 486 kts 215°
2026-05-05 04:39 -7.39310 38.80949 38026 ft 487 kts 215°
2026-05-05 04:39 -7.44719 38.76835 38031 ft 487 kts 215°
2026-05-05 04:40 -7.50131 38.72717 38024 ft 487 kts 215°
2026-05-05 04:40 -7.55517 38.68618 38024 ft 488 kts 215°
2026-05-05 04:41 -7.60936 38.64492 38009 ft 488 kts 215°
2026-05-05 04:41 -7.66347 38.60371 38021 ft 487 kts 215°
2026-05-05 04:42 -7.71750 38.56254 38018 ft 487 kts 215°
2026-05-05 04:42 -7.77158 38.52133 38035 ft 487 kts 215°
2026-05-05 04:43 -7.82565 38.48011 38018 ft 487 kts 215°
2026-05-05 04:43 -7.87969 38.43890 38016 ft 487 kts 215°
2026-05-05 04:44 -7.93373 38.39767 38015 ft 487 kts 215°
2026-05-05 04:44 -7.98746 38.35667 38024 ft 487 kts 215°
2026-05-05 04:45 -8.04149 38.31542 38037 ft 487 kts 215°
2026-05-05 04:45 -8.09551 38.27416 38019 ft 487 kts 215°
2026-05-05 04:46 -8.14944 38.23295 38026 ft 487 kts 215°
2026-05-05 04:46 -8.20345 38.19167 38045 ft 487 kts 215°
2026-05-05 04:47 -8.25747 38.15040 38057 ft 487 kts 215°
2026-05-05 04:47 -8.31156 38.10908 38052 ft 487 kts 215°
2026-05-05 04:48 -8.36524 38.06804 38039 ft 487 kts 216°
2026-05-05 04:48 -8.41929 38.02670 38041 ft 486 kts 216°
2026-05-05 04:49 -8.47320 37.98544 38060 ft 485 kts 216°
2026-05-05 04:49 -8.52708 37.94419 38070 ft 485 kts 216°
2026-05-05 04:50 -8.58047 37.90331 38069 ft 484 kts 216°
2026-05-05 04:50 -8.63412 37.86221 38068 ft 484 kts 216°
2026-05-05 04:51 -8.68776 37.82110 38048 ft 483 kts 216°
2026-05-05 04:51 -8.74129 37.78007 38047 ft 483 kts 216°
2026-05-05 04:52 -8.79488 37.73896 38069 ft 483 kts 216°
2026-05-05 04:52 -8.84844 37.69787 38069 ft 482 kts 216°
2026-05-05 04:53 -8.90192 37.65683 38072 ft 482 kts 216°
2026-05-05 04:53 -8.95538 37.61578 38070 ft 482 kts 216°
2026-05-05 04:54 -9.00847 37.57500 38054 ft 482 kts 216°
2026-05-05 04:54 -9.06197 37.53389 38053 ft 482 kts 216°
2026-05-05 04:55 -9.11537 37.49285 38070 ft 482 kts 216°
2026-05-05 04:55 -9.16881 37.45176 38069 ft 482 kts 216°
2026-05-05 04:56 -9.22228 37.41063 38065 ft 482 kts 216°
2026-05-05 04:56 -9.26664 37.37649 38068 ft 482 kts 216°
2026-05-05 04:57 -9.32878 37.32865 38075 ft 482 kts 216°
2026-05-05 04:57 -9.38228 37.28745 38075 ft 482 kts 216°
2026-05-05 04:58 -9.42670 37.25322 38077 ft 482 kts 216°
2026-05-05 04:58 -9.48008 37.21208 38080 ft 482 kts 216°
2026-05-05 04:59 -9.53359 37.17083 38079 ft 482 kts 216°
2026-05-05 04:59 -9.58679 37.12979 38062 ft 483 kts 216°
2026-05-05 05:00 -9.64018 37.08859 38075 ft 483 kts 216°
2026-05-05 05:00 -9.69369 37.04729 38081 ft 483 kts 216°
2026-05-05 05:01 -9.74711 37.00602 38082 ft 482 kts 216°
2026-05-05 05:01 -9.80049 36.96479 38087 ft 482 kts 216°
2026-05-05 05:02 -9.85384 36.92356 38087 ft 482 kts 216°
2026-05-05 05:02 -9.90721 36.88228 38089 ft 482 kts 216°
2026-05-05 05:03 -9.96051 36.84105 38093 ft 482 kts 216°
2026-05-05 05:03 -10.01349 36.80005 38081 ft 482 kts 216°
2026-05-05 05:04 -10.06680 36.75878 38092 ft 482 kts 216°
2026-05-05 05:04 -10.12005 36.71754 38094 ft 481 kts 216°
2026-05-05 05:05 -10.17339 36.67620 38093 ft 481 kts 216°
2026-05-05 05:05 -10.22668 36.63489 38100 ft 482 kts 216°
2026-05-05 05:06 -10.27967 36.59379 38102 ft 482 kts 216°
2026-05-05 05:06 -10.33289 36.55249 38105 ft 482 kts 216°
2026-05-05 05:07 -10.38615 36.51115 38104 ft 481 kts 216°
2026-05-05 05:07 -10.43939 36.46981 38107 ft 481 kts 216°
2026-05-05 05:08 -10.49258 36.42848 38110 ft 481 kts 216°
2026-05-05 05:08 -10.54575 36.38715 38110 ft 481 kts 216°
2026-05-05 05:09 -10.59890 36.34582 38110 ft 481 kts 216°
2026-05-05 05:09 -10.65198 36.30453 38110 ft 481 kts 217°
2026-05-05 05:10 -10.70508 36.26320 38111 ft 480 kts 217°
2026-05-05 05:10 -10.75815 36.22187 38104 ft 480 kts 217°
2026-05-05 05:11 -10.81115 36.18059 38111 ft 480 kts 217°
2026-05-05 05:11 -10.86383 36.13953 38110 ft 480 kts 217°
2026-05-05 05:12 -10.91692 36.09813 38107 ft 480 kts 217°
2026-05-05 05:12 -10.96994 36.05677 38109 ft 480 kts 217°
2026-05-05 05:13 -11.02295 36.01540 38108 ft 480 kts 217°
2026-05-05 05:13 -11.07598 35.97400 38106 ft 479 kts 217°
2026-05-05 05:14 -11.12886 35.93269 38109 ft 479 kts 217°
2026-05-05 05:14 -11.18140 35.89162 38101 ft 479 kts 217°
2026-05-05 05:15 -11.23426 35.85028 38106 ft 479 kts 217°
2026-05-05 05:15 -11.28704 35.80900 38108 ft 478 kts 217°
2026-05-05 05:16 -11.33983 35.76768 38106 ft 478 kts 217°
2026-05-05 05:16 -11.39258 35.72637 38106 ft 478 kts 217°
2026-05-05 05:17 -11.44537 35.68501 38105 ft 478 kts 217°
2026-05-05 05:17 -11.49805 35.64371 38105 ft 478 kts 217°
2026-05-05 05:18 -11.55045 35.60261 38103 ft 478 kts 217°
2026-05-05 05:18 -11.60332 35.56113 38109 ft 478 kts 217°
2026-05-05 05:19 -11.65581 35.51948 38106 ft 478 kts 218°
2026-05-05 05:19 -11.70819 35.47750 38108 ft 478 kts 218°
2026-05-05 05:20 -11.76050 35.43555 38110 ft 478 kts 218°
2026-05-05 05:20 -11.81290 35.39359 38109 ft 478 kts 218°
2026-05-05 05:21 -11.86537 35.35157 38110 ft 479 kts 218°
2026-05-05 05:21 -11.91739 35.30991 38108 ft 479 kts 218°
2026-05-05 05:22 -11.96974 35.26795 38109 ft 478 kts 218°
2026-05-05 05:22 -12.02212 35.22594 38111 ft 478 kts 218°
2026-05-05 05:23 -12.07443 35.18397 38110 ft 478 kts 218°
2026-05-05 05:23 -12.12679 35.14193 38107 ft 478 kts 218°
2026-05-05 05:24 -12.17882 35.10015 38103 ft 478 kts 218°
2026-05-05 05:24 -12.23110 35.05813 38110 ft 478 kts 218°
2026-05-05 05:25 -12.28337 35.01610 38100 ft 478 kts 218°
2026-05-05 05:25 -12.33568 34.97402 38113 ft 478 kts 219°
2026-05-05 05:26 -12.38793 34.93196 38096 ft 478 kts 219°
2026-05-05 05:26 -12.44013 34.88992 38097 ft 478 kts 219°
2026-05-05 05:27 -12.49205 34.84808 38102 ft 478 kts 219°
2026-05-05 05:27 -12.57052 34.78480 38085 ft 478 kts 219°
2026-05-05 05:28 -12.62298 34.74282 38089 ft 478 kts 218°
2026-05-05 05:28 -12.67624 34.70188 38076 ft 478 kts 217°
2026-05-05 05:29 -12.72926 34.66136 38078 ft 478 kts 218°
2026-05-05 05:29 -12.78265 34.62031 38079 ft 478 kts 218°
2026-05-05 05:30 -12.83581 34.57929 38081 ft 479 kts 218°
2026-05-05 05:30 -12.88908 34.53815 38084 ft 479 kts 218°
2026-05-05 05:31 -12.94227 34.49705 38085 ft 479 kts 218°
2026-05-05 05:31 -12.99519 34.45614 38084 ft 479 kts 218°
2026-05-05 05:32 -13.04852 34.41490 38091 ft 479 kts 218°
2026-05-05 05:32 -13.10181 34.37366 38092 ft 480 kts 218°
2026-05-05 05:33 -13.15509 34.33240 38097 ft 480 kts 218°
2026-05-05 05:33 -13.20802 34.29057 38109 ft 480 kts 219°
2026-05-05 05:34 -13.26034 34.24865 38111 ft 480 kts 219°
2026-05-05 05:34 -13.31311 34.20642 38130 ft 480 kts 219°
2026-05-05 05:35 -13.36589 34.16428 38134 ft 480 kts 219°
2026-05-05 05:35 -13.41873 34.12208 38136 ft 480 kts 219°
2026-05-05 05:36 -13.47145 34.07996 38148 ft 480 kts 219°
2026-05-05 05:36 -13.52422 34.03777 38147 ft 480 kts 219°
2026-05-05 05:37 -13.57653 33.99592 38178 ft 480 kts 219°
2026-05-05 05:37 -13.62922 33.95374 38191 ft 480 kts 219°
2026-05-05 05:38 -13.68186 33.91157 38201 ft 480 kts 219°
2026-05-05 05:38 -13.73458 33.86931 38210 ft 480 kts 219°
2026-05-05 05:39 -13.78728 33.82705 38210 ft 480 kts 219°
2026-05-05 05:39 -13.84171 33.78719 38219 ft 481 kts 214°
2026-05-05 05:40 -13.89857 33.75084 38206 ft 481 kts 213°
2026-05-05 05:40 -13.95548 33.71456 38182 ft 481 kts 213°
2026-05-05 05:41 -14.01191 33.67820 38184 ft 481 kts 213°
2026-05-05 05:41 -14.06855 33.64153 38184 ft 481 kts 214°
2026-05-05 05:42 -14.12521 33.60480 38176 ft 481 kts 214°
2026-05-05 05:42 -14.18196 33.56800 38181 ft 482 kts 214°
2026-05-05 05:43 -14.23878 33.53115 38177 ft 482 kts 214°
2026-05-05 05:43 -14.29549 33.49435 38174 ft 482 kts 214°
2026-05-05 05:44 -14.35228 33.45747 38165 ft 482 kts 214°
2026-05-05 05:44 -14.39942 33.42685 38167 ft 482 kts 214°
2026-05-05 05:45 -14.46543 33.38392 38161 ft 482 kts 214°
2026-05-05 05:45 -14.52209 33.34707 38155 ft 481 kts 214°
2026-05-05 05:46 -14.56982 33.31650 38152 ft 481 kts 213°
2026-05-05 05:46 -14.62654 33.28048 38144 ft 481 kts 213°
2026-05-05 05:47 -14.68359 33.24416 38132 ft 481 kts 213°
2026-05-05 05:47 -14.74044 33.20787 38138 ft 481 kts 214°
2026-05-05 05:48 -14.79740 33.17145 38121 ft 480 kts 214°
2026-05-05 05:48 -14.85425 33.13510 38122 ft 480 kts 214°
2026-05-05 05:49 -14.91106 33.09874 38119 ft 480 kts 214°
2026-05-05 05:49 -14.96805 33.06262 38116 ft 481 kts 213°
2026-05-05 05:50 -15.02594 33.02842 38107 ft 481 kts 212°
2026-05-05 05:50 -15.08440 32.99438 38106 ft 481 kts 212°
2026-05-05 05:51 -15.14267 32.96008 38103 ft 482 kts 212°
2026-05-05 05:51 -15.20085 32.92560 38093 ft 482 kts 212°
2026-05-05 05:52 -15.25900 32.89108 38101 ft 481 kts 212°
2026-05-05 05:52 -15.31710 32.85659 38090 ft 482 kts 212°
2026-05-05 05:53 -15.37490 32.82225 38093 ft 482 kts 212°
2026-05-05 05:53 -15.43312 32.78766 38087 ft 482 kts 212°
2026-05-05 05:54 -15.49140 32.75299 38066 ft 482 kts 212°
2026-05-05 05:54 -15.54959 32.71836 38066 ft 482 kts 212°
2026-05-05 05:55 -15.60650 32.68181 38080 ft 480 kts 216°
2026-05-05 05:55 -15.66189 32.64289 38081 ft 480 kts 217°
2026-05-05 05:56 -15.71682 32.60411 38069 ft 480 kts 217°
2026-05-05 05:56 -15.77225 32.56523 38071 ft 480 kts 217°
2026-05-05 05:57 -15.82762 32.52651 38070 ft 480 kts 217°
2026-05-05 05:57 -15.88275 32.48796 38089 ft 480 kts 217°
2026-05-05 05:58 -15.93811 32.44921 38073 ft 480 kts 217°
2026-05-05 05:58 -15.99364 32.41030 38077 ft 480 kts 217°
2026-05-05 05:59 -16.04903 32.37147 38079 ft 480 kts 217°
2026-05-05 05:59 -16.10442 32.33260 38096 ft 480 kts 217°
2026-05-05 06:00 -16.15946 32.29396 38111 ft 480 kts 217°
2026-05-05 06:00 -16.21495 32.25497 38111 ft 480 kts 217°
2026-05-05 06:01 -16.27033 32.21603 38101 ft 481 kts 217°
2026-05-05 06:01 -16.32577 32.17702 38098 ft 481 kts 217°
2026-05-05 06:02 -16.38123 32.13797 38121 ft 481 kts 217°
2026-05-05 06:02 -16.43642 32.09915 38119 ft 481 kts 216°
2026-05-05 06:03 -16.49277 32.06148 38130 ft 482 kts 215°
2026-05-05 06:03 -16.54961 32.02438 38133 ft 482 kts 215°
2026-05-05 06:04 -16.60643 31.98707 38135 ft 482 kts 215°
2026-05-05 06:04 -16.66305 31.94965 38142 ft 482 kts 215°
2026-05-05 06:05 -16.71960 31.91216 38149 ft 482 kts 215°
2026-05-05 06:05 -16.77622 31.87461 38154 ft 482 kts 215°
2026-05-05 06:06 -16.83279 31.83706 38161 ft 482 kts 215°
2026-05-05 06:06 -16.88903 31.79972 38162 ft 482 kts 215°
2026-05-05 06:07 -16.94561 31.76212 38168 ft 482 kts 215°
2026-05-05 06:07 -17.00228 31.72444 38178 ft 483 kts 215°
2026-05-05 06:08 -17.05890 31.68676 38191 ft 483 kts 216°
2026-05-05 06:08 -17.11565 31.64898 38183 ft 483 kts 216°
2026-05-05 06:09 -17.17233 31.61120 38193 ft 483 kts 216°
2026-05-05 06:09 -17.22902 31.57340 38192 ft 483 kts 216°
2026-05-05 06:10 -17.28527 31.53586 38193 ft 483 kts 216°
2026-05-05 06:10 -17.34194 31.49801 38209 ft 483 kts 216°
2026-05-05 06:11 -17.39855 31.46016 38207 ft 483 kts 216°
2026-05-05 06:11 -17.45523 31.42225 38214 ft 483 kts 216°
2026-05-05 06:12 -17.51187 31.38434 38218 ft 483 kts 216°
2026-05-05 06:12 -17.56839 31.34648 38226 ft 482 kts 216°
2026-05-05 06:13 -17.62494 31.30857 38223 ft 482 kts 216°
2026-05-05 06:13 -17.68147 31.27064 38232 ft 482 kts 216°
2026-05-05 06:14 -17.73805 31.23264 38254 ft 482 kts 216°
2026-05-05 06:14 -17.79439 31.19478 38257 ft 481 kts 216°
2026-05-05 06:15 -17.85051 31.15703 38264 ft 481 kts 216°
2026-05-05 06:15 -17.90453 31.11600 38268 ft 476 kts 225°
2026-05-05 06:16 -17.94997 31.06601 38269 ft 472 kts 233°
2026-05-05 06:16 -17.99146 31.01258 38265 ft 472 kts 234°
2026-05-05 06:17 -18.03291 30.95914 38262 ft 472 kts 233°
2026-05-05 06:17 -18.07463 30.90577 38236 ft 472 kts 234°
2026-05-05 06:18 -18.11644 30.85246 38226 ft 472 kts 233°
2026-05-05 06:18 -18.15803 30.79943 38229 ft 472 kts 233°
2026-05-05 06:19 -18.19979 30.74613 38231 ft 472 kts 234°
2026-05-05 06:19 -18.24159 30.69271 38228 ft 472 kts 234°
2026-05-05 06:20 -18.28329 30.63938 38226 ft 472 kts 234°
2026-05-05 06:20 -18.32496 30.58604 38226 ft 472 kts 234°
2026-05-05 06:21 -18.36669 30.53257 38224 ft 472 kts 234°
2026-05-05 06:21 -18.40834 30.47915 38224 ft 472 kts 234°
2026-05-05 06:22 -18.44971 30.42607 38233 ft 471 kts 234°
2026-05-05 06:22 -18.49127 30.37269 38227 ft 471 kts 234°
2026-05-05 06:23 -18.53284 30.31924 38219 ft 471 kts 234°
2026-05-05 06:23 -18.57436 30.26580 38214 ft 471 kts 234°
2026-05-05 06:24 -18.61585 30.21239 38223 ft 470 kts 234°
2026-05-05 06:24 -18.65727 30.15942 38215 ft 470 kts 234°
2026-05-05 06:25 -18.69911 30.10628 38222 ft 470 kts 234°
2026-05-05 06:25 -18.74086 30.05313 38214 ft 470 kts 234°
2026-05-05 06:26 -18.78259 29.99989 38219 ft 471 kts 234°
2026-05-05 06:26 -18.82405 29.94694 38222 ft 471 kts 234°
2026-05-05 06:27 -18.88666 29.86689 38214 ft 471 kts 234°
2026-05-05 06:28 -18.92839 29.81352 38214 ft 471 kts 234°
2026-05-05 06:28 -18.97389 29.76304 38222 ft 474 kts 229°
2026-05-05 06:29 -19.02062 29.71449 38217 ft 474 kts 229°
2026-05-05 06:29 -19.06757 29.66554 38207 ft 474 kts 229°
2026-05-05 06:30 -19.11430 29.61644 38206 ft 473 kts 229°
2026-05-05 06:30 -19.16093 29.56726 38208 ft 473 kts 229°
2026-05-05 06:31 -19.20753 29.51805 38221 ft 473 kts 230°
2026-05-05 06:31 -19.25408 29.46887 38198 ft 473 kts 230°
2026-05-05 06:32 -19.30061 29.41967 38205 ft 472 kts 230°
2026-05-05 06:32 -19.33926 29.37879 38210 ft 472 kts 230°
2026-05-05 06:33 -19.38572 29.32959 38201 ft 472 kts 230°
2026-05-05 06:33 -19.43211 29.28043 38197 ft 472 kts 230°
2026-05-05 06:34 -19.47846 29.23127 38203 ft 471 kts 230°
2026-05-05 06:34 -19.52459 29.18230 38213 ft 471 kts 230°
2026-05-05 06:35 -19.57088 29.13312 38193 ft 471 kts 230°
2026-05-05 06:35 -19.61726 29.08379 38189 ft 471 kts 230°
2026-05-05 06:36 -19.66357 29.03450 38214 ft 471 kts 230°
2026-05-05 06:36 -19.70986 28.98520 38209 ft 471 kts 230°
2026-05-05 06:37 -19.75609 28.93590 38192 ft 471 kts 230°
2026-05-05 06:37 -19.80239 28.88649 38191 ft 471 kts 230°
2026-05-05 06:38 -19.84832 28.83744 38193 ft 471 kts 230°
2026-05-05 06:38 -19.89459 28.78796 38196 ft 471 kts 230°
2026-05-05 06:39 -19.94088 28.73843 38207 ft 471 kts 231°
2026-05-05 06:39 -19.98705 28.68899 38213 ft 471 kts 231°
2026-05-05 06:40 -20.03636 28.64258 38223 ft 477 kts 222°
2026-05-05 06:40 -20.09336 28.60540 38223 ft 483 kts 214°
2026-05-05 06:41 -20.15233 28.57182 38206 ft 483 kts 214°
2026-05-05 06:41 -20.21170 28.53795 38194 ft 483 kts 214°
2026-05-05 06:42 -20.27073 28.50385 38191 ft 483 kts 214°
2026-05-05 06:42 -20.32970 28.46956 38165 ft 482 kts 214°
2026-05-05 06:43 -20.38822 28.43547 38164 ft 482 kts 214°
2026-05-05 06:43 -20.44701 28.40121 38159 ft 482 kts 214°
2026-05-05 06:44 -20.50580 28.36694 38155 ft 482 kts 214°
2026-05-05 06:44 -20.56460 28.33263 38151 ft 482 kts 214°
2026-05-05 06:45 -20.62351 28.29823 38138 ft 482 kts 215°
2026-05-05 06:45 -20.68224 28.26391 38127 ft 481 kts 215°
2026-05-05 06:46 -20.74103 28.22951 38116 ft 481 kts 215°
2026-05-05 06:46 -20.79972 28.19514 38117 ft 481 kts 215°
2026-05-05 06:47 -20.85842 28.16074 38107 ft 481 kts 215°
2026-05-05 06:47 -20.91669 28.12656 38115 ft 481 kts 215°
2026-05-05 06:48 -20.97543 28.09207 38104 ft 481 kts 215°
2026-05-05 06:48 -21.03415 28.05756 38099 ft 481 kts 216°
2026-05-05 06:49 -21.09293 28.02299 38092 ft 482 kts 216°
2026-05-05 06:49 -21.15165 27.98841 38091 ft 482 kts 216°
2026-05-05 06:50 -21.21047 27.95375 38088 ft 482 kts 216°
2026-05-05 06:50 -21.26924 27.91908 38094 ft 482 kts 216°
2026-05-05 06:51 -21.32807 27.88433 38091 ft 483 kts 216°
2026-05-05 06:51 -21.38680 27.84947 38095 ft 483 kts 216°
2026-05-05 06:52 -21.44521 27.81472 38078 ft 483 kts 216°
2026-05-05 06:52 -21.50406 27.77968 38075 ft 483 kts 216°
2026-05-05 06:53 -21.56288 27.74465 38084 ft 483 kts 216°
2026-05-05 06:53 -21.62177 27.70954 38078 ft 484 kts 216°
2026-05-05 06:54 -21.68028 27.67462 38073 ft 484 kts 216°
2026-05-05 06:54 -21.73912 27.63947 38075 ft 484 kts 216°
2026-05-05 06:55 -21.79796 27.60429 38070 ft 484 kts 216°
2026-05-05 06:55 -21.85677 27.56909 38073 ft 483 kts 216°
2026-05-05 06:56 -21.91557 27.53386 38077 ft 484 kts 217°
2026-05-05 06:56 -21.97439 27.49859 38064 ft 484 kts 217°
2026-05-05 06:57 -22.03330 27.46337 38078 ft 484 kts 217°
2026-05-05 06:57 -22.09222 27.42813 38063 ft 484 kts 217°
2026-05-05 06:58 -22.15105 27.39289 38060 ft 484 kts 217°
2026-05-05 06:58 -22.20944 27.35786 38054 ft 483 kts 217°
2026-05-05 06:59 -22.26822 27.32257 38042 ft 483 kts 217°
2026-05-05 06:59 -22.32696 27.28726 38040 ft 483 kts 217°
2026-05-05 07:00 -22.38577 27.25208 38039 ft 483 kts 217°
2026-05-05 07:00 -22.44476 27.21711 38039 ft 483 kts 217°
2026-05-05 07:01 -22.50329 27.18235 38055 ft 482 kts 217°
2026-05-05 07:01 -22.56212 27.14732 38075 ft 482 kts 218°
2026-05-05 07:02 -22.62097 27.11223 38049 ft 484 kts 218°
2026-05-05 07:02 -22.67993 27.07704 38038 ft 484 kts 218°
2026-05-05 07:03 -22.73901 27.04175 38042 ft 484 kts 218°
2026-05-05 07:03 -22.79791 27.00637 38042 ft 484 kts 218°
2026-05-05 07:04 -22.85659 26.97049 38035 ft 483 kts 218°
2026-05-05 07:04 -22.91479 26.93478 38039 ft 484 kts 218°
2026-05-05 07:05 -22.97342 26.89884 38037 ft 484 kts 218°
2026-05-05 07:05 -23.03213 26.86286 38042 ft 484 kts 219°
2026-05-05 07:06 -23.09077 26.82689 38031 ft 485 kts 219°
2026-05-05 07:06 -23.14927 26.79097 38026 ft 485 kts 219°
2026-05-05 07:07 -23.20808 26.75482 38055 ft 486 kts 219°
2026-05-05 07:07 -23.26707 26.71852 38028 ft 487 kts 219°
2026-05-05 07:08 -23.32606 26.68219 38027 ft 487 kts 219°
2026-05-05 07:08 -23.38500 26.64586 38031 ft 486 kts 219°
2026-05-05 07:09 -23.44391 26.60950 38017 ft 486 kts 219°
2026-05-05 07:09 -23.50235 26.57339 38022 ft 486 kts 219°
2026-05-05 07:10 -23.56119 26.53700 38031 ft 487 kts 220°
2026-05-05 07:10 -23.62009 26.50052 38019 ft 486 kts 220°
2026-05-05 07:11 -23.67890 26.46407 38013 ft 486 kts 220°
2026-05-05 07:11 -23.73772 26.42763 38024 ft 486 kts 220°
2026-05-05 07:12 -23.79665 26.39125 38019 ft 486 kts 220°
2026-05-05 07:12 -23.85534 26.35481 38042 ft 484 kts 221°
2026-05-05 07:13 -23.91219 26.31584 38018 ft 481 kts 223°
2026-05-05 07:13 -23.96827 26.27607 38010 ft 481 kts 224°
2026-05-05 07:14 -24.02415 26.23657 38009 ft 481 kts 224°
2026-05-05 07:14 -24.08061 26.19690 38002 ft 481 kts 224°
2026-05-05 07:15 -24.13696 26.15736 38005 ft 481 kts 224°
2026-05-05 07:15 -24.19330 26.11778 38025 ft 481 kts 224°
2026-05-05 07:16 -24.24964 26.07813 38011 ft 481 kts 224°
2026-05-05 07:16 -24.30587 26.03852 38008 ft 480 kts 224°
2026-05-05 07:17 -24.36212 25.99886 38010 ft 480 kts 224°
2026-05-05 07:17 -24.41793 25.95945 38023 ft 480 kts 224°
2026-05-05 07:18 -24.47405 25.91978 38011 ft 480 kts 224°
2026-05-05 07:18 -24.53020 25.88005 38031 ft 480 kts 224°
2026-05-05 07:19 -24.58630 25.84032 38023 ft 480 kts 224°
2026-05-05 07:19 -24.64009 25.79807 38008 ft 472 kts 229°
2026-05-05 07:20 -24.69232 25.75424 37999 ft 471 kts 229°
2026-05-05 07:20 -24.74447 25.71043 38000 ft 471 kts 229°
2026-05-05 07:21 -24.78787 25.67418 37994 ft 471 kts 229°
2026-05-05 07:21 -24.84009 25.63064 38066 ft 472 kts 229°
2026-05-05 07:22 -24.89255 25.58686 37986 ft 473 kts 229°
2026-05-05 07:22 -24.94486 25.54321 38012 ft 471 kts 230°
2026-05-05 07:23 -24.99715 25.49946 38008 ft 472 kts 230°
2026-05-05 07:23 -25.04957 25.45556 38009 ft 473 kts 230°
2026-05-05 07:24 -25.10175 25.41182 38007 ft 474 kts 230°
2026-05-05 07:24 -25.15436 25.36769 37982 ft 475 kts 230°
2026-05-05 07:25 -25.20702 25.32345 38035 ft 476 kts 230°
2026-05-05 07:25 -25.25994 25.27893 37996 ft 479 kts 230°
2026-05-05 07:26 -25.31267 25.23456 37989 ft 479 kts 230°
2026-05-05 07:26 -25.36297 25.18774 37988 ft 462 kts 239°
2026-05-05 07:27 -25.40242 25.13350 37974 ft 442 kts 250°
2026-05-05 07:27 -25.44105 25.07931 37981 ft 463 kts 237°
2026-05-05 07:28 -25.49130 25.03282 37984 ft 472 kts 232°
2026-05-05 07:28 -25.54179 24.98619 38017 ft 473 kts 233°
2026-05-05 07:29 -25.59210 24.93895 37990 ft 474 kts 233°
2026-05-05 07:29 -25.64222 24.89181 37978 ft 476 kts 233°
2026-05-05 07:30 -25.69279 24.84429 37985 ft 476 kts 233°
2026-05-05 07:30 -25.76848 24.77307 37982 ft 475 kts 233°
2026-05-05 07:31 -25.81879 24.72567 37973 ft 473 kts 233°
2026-05-05 07:31 -25.86894 24.67891 38007 ft 474 kts 233°
2026-05-05 07:32 -25.91981 24.63222 37970 ft 474 kts 232°
2026-05-05 07:32 -25.97066 24.58553 37967 ft 473 kts 233°
2026-05-05 07:33 -26.02131 24.53883 37969 ft 473 kts 233°
2026-05-05 07:33 -26.07166 24.49228 37966 ft 473 kts 233°
2026-05-05 07:34 -26.12230 24.44540 37966 ft 474 kts 233°
2026-05-05 07:34 -26.17303 24.39839 37965 ft 474 kts 233°
2026-05-05 07:35 -26.22376 24.35133 37968 ft 475 kts 232°
2026-05-05 07:35 -26.27456 24.30417 37960 ft 475 kts 232°
2026-05-05 07:36 -26.32526 24.25705 37952 ft 474 kts 232°
2026-05-05 07:36 -26.37598 24.20984 37952 ft 473 kts 233°
2026-05-05 07:37 -26.42615 24.16309 37953 ft 472 kts 233°
2026-05-05 07:37 -26.47652 24.11609 37951 ft 472 kts 233°
2026-05-05 07:38 -26.52688 24.06904 37986 ft 472 kts 233°
2026-05-05 07:38 -26.57722 24.02193 37964 ft 473 kts 233°
2026-05-05 07:39 -26.62768 23.97470 37954 ft 472 kts 233°
2026-05-05 07:39 -26.67788 23.92766 37947 ft 470 kts 233°
2026-05-05 07:40 -26.72799 23.88063 37950 ft 469 kts 233°
2026-05-05 07:40 -26.77792 23.83370 37956 ft 469 kts 233°
2026-05-05 07:41 -26.82752 23.78703 37957 ft 468 kts 233°
2026-05-05 07:41 -26.87742 23.74001 38044 ft 469 kts 233°
2026-05-05 07:42 -26.92747 23.69279 37969 ft 470 kts 233°
2026-05-05 07:42 -26.97745 23.64563 37963 ft 469 kts 233°
2026-05-05 07:43 -27.02725 23.59856 37962 ft 468 kts 233°
2026-05-05 07:43 -27.07672 23.55174 37964 ft 467 kts 233°
2026-05-05 07:44 -27.12629 23.50476 37962 ft 466 kts 233°
2026-05-05 07:44 -27.17582 23.45776 37964 ft 466 kts 233°
2026-05-05 07:45 -27.22544 23.41061 38004 ft 467 kts 233°
2026-05-05 07:45 -27.27525 23.36321 37972 ft 469 kts 233°
2026-05-05 07:46 -27.32506 23.31579 37954 ft 469 kts 233°
2026-05-05 07:46 -27.37492 23.26827 37962 ft 470 kts 233°
2026-05-05 07:47 -27.42483 23.22063 37956 ft 470 kts 233°
2026-05-05 07:47 -27.47475 23.17292 37960 ft 470 kts 233°
2026-05-05 07:48 -27.52462 23.12520 37957 ft 471 kts 233°
2026-05-05 07:48 -27.57455 23.07734 37985 ft 472 kts 233°
2026-05-05 07:49 -27.62437 23.02956 37963 ft 472 kts 233°
2026-05-05 07:49 -27.67468 22.98183 37961 ft 474 kts 231°
2026-05-05 07:50 -27.72677 22.93585 37968 ft 476 kts 230°
2026-05-05 07:50 -27.77926 22.89023 37969 ft 475 kts 230°
2026-05-05 07:51 -27.83111 22.84473 37981 ft 474 kts 230°
2026-05-05 07:51 -27.88295 22.79884 37990 ft 474 kts 230°
2026-05-05 07:52 -27.93486 22.75271 37982 ft 475 kts 230°
2026-05-05 07:52 -27.98683 22.70649 37992 ft 475 kts 230°
2026-05-05 07:53 -28.03873 22.66030 37994 ft 475 kts 230°
2026-05-05 07:53 -28.09066 22.61404 37992 ft 474 kts 230°
2026-05-05 07:54 -28.14218 22.56809 37998 ft 474 kts 230°
2026-05-05 07:54 -28.19406 22.52174 38042 ft 474 kts 230°
2026-05-05 07:55 -28.24599 22.47527 38008 ft 475 kts 230°
2026-05-05 07:55 -28.29796 22.42872 38018 ft 477 kts 231°
2026-05-05 07:56 -28.35014 22.38193 38010 ft 477 kts 231°
2026-05-05 07:56 -28.40197 22.33540 38010 ft 478 kts 231°
2026-05-05 07:57 -28.45426 22.28840 38012 ft 479 kts 231°
2026-05-05 07:57 -28.50651 22.24136 38043 ft 479 kts 231°
2026-05-05 07:58 -28.55884 22.19419 38016 ft 480 kts 231°
2026-05-05 07:58 -28.61109 22.14704 38023 ft 479 kts 231°
2026-05-05 07:59 -28.66344 22.09972 38018 ft 481 kts 230°
2026-05-05 07:59 -28.71591 22.05222 38021 ft 483 kts 230°
2026-05-05 08:00 -28.76862 22.00446 38011 ft 484 kts 230°
2026-05-05 08:00 -28.82107 21.95688 38016 ft 485 kts 230°
2026-05-05 08:01 -28.87401 21.90878 38025 ft 487 kts 230°
2026-05-05 08:01 -28.92715 21.86044 38003 ft 488 kts 230°
2026-05-05 08:02 -28.98024 21.81209 38005 ft 488 kts 230°
2026-05-05 08:02 -29.03337 21.76364 38034 ft 489 kts 229°
2026-05-05 08:03 -29.08649 21.71512 38025 ft 488 kts 229°
2026-05-05 08:03 -29.13923 21.66689 38016 ft 487 kts 230°
2026-05-05 08:04 -29.19213 21.61844 38031 ft 487 kts 229°
2026-05-05 08:04 -29.24503 21.56993 38027 ft 487 kts 229°
2026-05-05 08:05 -29.29785 21.52141 38030 ft 487 kts 229°
2026-05-05 08:05 -29.35063 21.47287 38027 ft 486 kts 229°
2026-05-05 08:06 -29.40344 21.42423 38030 ft 487 kts 229°
2026-05-05 08:06 -29.45624 21.37553 38029 ft 487 kts 229°
2026-05-05 08:07 -29.50904 21.32677 38031 ft 487 kts 229°
2026-05-05 08:07 -29.56152 21.27824 38030 ft 487 kts 229°
2026-05-05 08:08 -29.61440 21.22927 38034 ft 487 kts 229°
2026-05-05 08:08 -29.66722 21.18029 38033 ft 487 kts 229°
2026-05-05 08:09 -29.71112 21.13954 38082 ft 487 kts 229°
2026-05-05 08:09 -29.76395 21.09040 38039 ft 488 kts 228°
2026-05-05 08:10 -29.81677 21.04122 38032 ft 489 kts 228°
2026-05-05 08:10 -29.86965 20.99193 38035 ft 489 kts 228°
2026-05-05 08:11 -29.92262 20.94249 38038 ft 490 kts 228°
2026-05-05 08:11 -29.97523 20.89330 38033 ft 490 kts 228°
2026-05-05 08:12 -30.02823 20.84368 38043 ft 490 kts 228°
2026-05-05 08:12 -30.08114 20.79407 38078 ft 490 kts 227°
2026-05-05 08:13 -30.13404 20.74439 38050 ft 490 kts 227°
2026-05-05 08:13 -30.18670 20.69488 38051 ft 490 kts 227°
2026-05-05 08:14 -30.23994 20.64476 38044 ft 490 kts 227°
2026-05-05 08:14 -30.29275 20.59496 38045 ft 490 kts 227°
2026-05-05 08:15 -30.34527 20.54536 38045 ft 489 kts 227°
2026-05-05 08:15 -30.39795 20.49554 38050 ft 489 kts 227°
2026-05-05 08:16 -30.45070 20.44555 38066 ft 490 kts 225°
2026-05-05 08:16 -30.50422 20.39658 38052 ft 493 kts 220°
2026-05-05 08:17 -30.56474 20.35770 38055 ft 502 kts 208°
2026-05-05 08:17 -30.63034 20.32896 38067 ft 504 kts 205°
2026-05-05 08:18 -30.69611 20.30165 38061 ft 504 kts 205°
2026-05-05 08:18 -30.76216 20.27379 38067 ft 504 kts 205°
2026-05-05 08:19 -30.82807 20.24551 38060 ft 504 kts 205°
2026-05-05 08:19 -30.89346 20.21727 38062 ft 503 kts 205°
2026-05-05 08:20 -30.95916 20.18886 38068 ft 503 kts 205°
2026-05-05 08:20 -31.02491 20.16041 38075 ft 504 kts 205°
2026-05-05 08:21 -31.09061 20.13196 38091 ft 503 kts 204°
2026-05-05 08:21 -31.15623 20.10351 38058 ft 502 kts 204°
2026-05-05 08:22 -31.22150 20.07517 38065 ft 499 kts 204°
2026-05-05 08:22 -31.28646 20.04692 38085 ft 497 kts 204°
2026-05-05 08:23 -31.35124 20.01869 38059 ft 495 kts 204°
2026-05-05 08:23 -31.41537 19.99071 38064 ft 494 kts 204°
2026-05-05 08:24 -31.47983 19.96254 38063 ft 494 kts 204°
2026-05-05 08:24 -31.54426 19.93434 38065 ft 494 kts 204°
2026-05-05 08:25 -31.60881 19.90604 38076 ft 495 kts 204°
2026-05-05 08:25 -31.67341 19.87769 38072 ft 496 kts 204°
2026-05-05 08:26 -31.73821 19.84921 38072 ft 496 kts 204°
2026-05-05 08:26 -31.80250 19.82092 38069 ft 496 kts 204°
2026-05-05 08:27 -31.86725 19.79237 38099 ft 496 kts 203°
2026-05-05 08:27 -31.93177 19.76389 38073 ft 494 kts 203°
2026-05-05 08:28 -31.99599 19.73550 38064 ft 491 kts 203°
2026-05-05 08:28 -32.05984 19.70723 38069 ft 489 kts 203°
2026-05-05 08:29 -32.12342 19.67903 38072 ft 487 kts 203°
2026-05-05 08:30 -32.21829 19.63686 38066 ft 485 kts 202°
2026-05-05 08:30 -32.28110 19.60890 38069 ft 485 kts 202°
2026-05-05 08:31 -32.34427 19.58073 38064 ft 486 kts 202°
2026-05-05 08:31 -32.40764 19.55259 38064 ft 486 kts 202°
2026-05-05 08:32 -32.47129 19.52483 38059 ft 487 kts 202°
2026-05-05 08:32 -32.53503 19.49702 38051 ft 488 kts 202°
2026-05-05 08:32 -32.56682 19.48309 37251 ft 500 kts 202°
2026-05-05 08:33 -32.59960 19.46871 36462 ft 501 kts 202°
2026-05-05 08:33 -32.63225 19.45437 35582 ft 502 kts 202°
2026-05-05 08:33 -32.66519 19.43989 34557 ft 505 kts 201°
2026-05-05 08:33 -32.69824 19.42536 33626 ft 505 kts 201°
2026-05-05 08:34 -32.73092 19.41098 32856 ft 499 kts 201°
2026-05-05 08:34 -32.76327 19.39674 32131 ft 493 kts 201°
2026-05-05 08:34 -32.79531 19.38263 31444 ft 487 kts 201°
2026-05-05 08:34 -32.82725 19.37018 30773 ft 481 kts 196°
2026-05-05 08:35 -32.85949 19.36002 30142 ft 476 kts 195°
2026-05-05 08:35 -32.89154 19.35029 29379 ft 472 kts 195°
2026-05-05 08:35 -32.92278 19.34085 28696 ft 466 kts 195°
2026-05-05 08:35 -32.95402 19.33133 28048 ft 460 kts 195°
2026-05-05 08:36 -32.98486 19.32183 27416 ft 455 kts 195°
2026-05-05 08:36 -33.01530 19.31236 26778 ft 450 kts 195°
2026-05-05 08:36 -33.04547 19.30294 26162 ft 446 kts 195°
2026-05-05 08:36 -33.07529 19.29359 25557 ft 441 kts 195°
2026-05-05 08:37 -33.10496 19.28428 24962 ft 438 kts 195°
2026-05-05 08:37 -33.13432 19.27506 24376 ft 434 kts 195°
2026-05-05 08:37 -33.16347 19.26591 23795 ft 431 kts 195°
2026-05-05 08:37 -33.19243 19.25681 23217 ft 427 kts 195°
2026-05-05 08:38 -33.22063 19.24795 22728 ft 420 kts 195°
2026-05-05 08:38 -33.24870 19.23911 22176 ft 415 kts 195°
2026-05-05 08:38 -33.27657 19.23034 21399 ft 415 kts 195°
2026-05-05 08:38 -33.30457 19.22152 20659 ft 415 kts 195°
2026-05-05 08:39 -33.33246 19.21273 20003 ft 413 kts 194°
2026-05-05 08:39 -33.36002 19.20404 19571 ft 406 kts 194°
2026-05-05 08:39 -33.38701 19.19553 19229 ft 396 kts 194°
2026-05-05 08:39 -33.41246 19.18459 18649 ft 387 kts 209°
2026-05-05 08:40 -33.43322 19.16437 18084 ft 382 kts 226°
2026-05-05 08:40 -33.45089 19.14092 17534 ft 377 kts 227°
2026-05-05 08:40 -33.46850 19.11803 17129 ft 371 kts 226°
2026-05-05 08:40 -33.48596 19.09560 16699 ft 365 kts 225°
2026-05-05 08:41 -33.50326 19.07349 16164 ft 362 kts 225°
2026-05-05 08:41 -33.52045 19.05157 15633 ft 360 kts 225°
2026-05-05 08:41 -33.53736 19.02999 15107 ft 358 kts 225°
2026-05-05 08:41 -33.55455 19.00806 14633 ft 355 kts 225°
2026-05-05 08:42 -33.57110 18.98692 14277 ft 348 kts 225°
2026-05-05 08:42 -33.58747 18.96600 13972 ft 340 kts 225°
2026-05-05 08:42 -33.60350 18.94553 13602 ft 334 kts 225°
2026-05-05 08:42 -33.61935 18.92527 13136 ft 331 kts 225°
2026-05-05 08:43 -33.63509 18.90514 12628 ft 330 kts 226°
2026-05-05 08:43 -33.65071 18.88516 12221 ft 325 kts 226°
2026-05-05 08:43 -33.66596 18.86562 11934 ft 317 kts 226°
2026-05-05 08:43 -33.68088 18.84652 11629 ft 310 kts 226°
2026-05-05 08:44 -33.69554 18.82774 11245 ft 307 kts 226°
2026-05-05 08:44 -33.71014 18.80903 10792 ft 306 kts 226°
2026-05-05 08:44 -33.72467 18.79037 10374 ft 305 kts 226°
2026-05-05 08:44 -33.73902 18.77194 10056 ft 299 kts 225°
2026-05-05 08:45 -33.75308 18.75389 9765 ft 292 kts 225°
2026-05-05 08:45 -33.76687 18.73617 9378 ft 289 kts 225°
2026-05-05 08:45 -33.78058 18.71854 8945 ft 288 kts 225°
2026-05-05 08:45 -33.79553 18.70402 8562 ft 276 kts 204°
2026-05-05 08:46 -33.81379 18.69920 8397 ft 264 kts 181°
2026-05-05 08:46 -33.83168 18.70163 8170 ft 256 kts 167°
2026-05-05 08:46 -33.84875 18.70706 7870 ft 252 kts 165°
2026-05-05 08:46 -33.86555 18.71273 7537 ft 249 kts 165°
2026-05-05 08:47 -33.88217 18.71822 7188 ft 247 kts 166°
2026-05-05 08:47 -33.89890 18.72366 7035 ft 254 kts 166°
2026-05-05 08:47 -33.91624 18.72923 6998 ft 256 kts 166°
2026-05-05 08:47 -33.93322 18.73467 6990 ft 248 kts 166°
2026-05-05 08:48 -33.94960 18.73992 6974 ft 239 kts 166°
2026-05-05 08:48 -33.96559 18.74502 6977 ft 237 kts 167°
2026-05-05 08:48 -33.98136 18.75004 6779 ft 238 kts 166°
2026-05-05 08:48 -33.99724 18.75512 6443 ft 236 kts 166°
2026-05-05 08:49 -34.01319 18.76021 6033 ft 237 kts 166°
2026-05-05 08:49 -34.02908 18.76531 5688 ft 236 kts 167°
2026-05-05 08:49 -34.04494 18.77035 5320 ft 236 kts 167°
2026-05-05 08:49 -34.06081 18.77542 5016 ft 236 kts 167°
2026-05-05 08:50 -34.07672 18.78050 5007 ft 237 kts 167°
2026-05-05 08:50 -34.09259 18.78565 4915 ft 236 kts 166°
2026-05-05 08:50 -34.10843 18.79086 4753 ft 236 kts 166°
2026-05-05 08:50 -34.12431 18.79621 4577 ft 238 kts 166°
2026-05-05 08:51 -34.14007 18.80156 4399 ft 236 kts 169°
2026-05-05 08:51 -34.15616 18.80168 4146 ft 233 kts 200°
2026-05-05 08:51 -34.16929 18.79148 4067 ft 224 kts 233°
2026-05-05 08:51 -34.17680 18.77520 4011 ft 222 kts 247°
2026-05-05 08:52 -34.18291 18.75820 4000 ft 217 kts 248°
2026-05-05 08:52 -34.18865 18.74172 3887 ft 209 kts 249°
2026-05-05 08:52 -34.19361 18.72546 3768 ft 210 kts 251°
2026-05-05 08:52 -34.19812 18.70864 3836 ft 210 kts 262°
2026-05-05 08:53 -34.19588 18.69123 3829 ft 217 kts 297°
2026-05-05 08:53 -34.18515 18.67834 3846 ft 225 kts 329°
2026-05-05 08:53 -34.17073 18.67049 3859 ft 230 kts 336°
2026-05-05 08:53 -34.15569 18.66324 3558 ft 230 kts 338°
2026-05-05 08:54 -34.14096 18.65770 3256 ft 214 kts 342°
2026-05-05 08:54 -34.12684 18.65315 2977 ft 207 kts 343°
2026-05-05 08:54 -34.11352 18.64895 2752 ft 189 kts 343°
2026-05-05 08:54 -34.10134 18.64508 2484 ft 174 kts 342°
2026-05-05 08:55 -34.09016 18.64151 2233 ft 159 kts 343°
2026-05-05 08:55 -34.07984 18.63821 2039 ft 153 kts 343°
2026-05-05 08:55 -34.06948 18.63490 1852 ft 154 kts 343°
2026-05-05 08:55 -34.05932 18.63167 1633 ft 145 kts 343°
2026-05-05 08:56 -34.04990 18.62866 1441 ft 138 kts 345°
2026-05-05 08:56 -34.04051 18.62568 1261 ft 139 kts 345°
2026-05-05 08:56 -34.03127 18.62274 1048 ft 136 kts 345°
2026-05-05 08:56 -34.02226 18.61980 870 ft 134 kts 345°
2026-05-05 08:57 -34.01340 18.61696 722 ft 135 kts 346°
2026-05-05 08:57 -34.00433 18.61412 573 ft 135 kts 346°
2026-05-05 08:57 -33.99498 18.61117 373 ft 141 kts 347°
2026-05-05 08:57 -33.98868 18.60930 240 ft 139 kts 347°
2026-05-05 08:58 -33.97958 18.60645 161 ft 127 kts 343°
2026-05-05 08:58 -33.97136 18.60371 159 ft 56 kts 345°
2026-05-05 08:58 -33.96980 18.60321 160 ft 31 kts 345°
2026-05-05 08:58 -33.96777 18.60256 162 ft 30 kts 345°
2026-05-05 08:59 -33.96583 18.60196 162 ft 25 kts 345°
2026-05-05 08:59 -33.96481 18.60154 161 ft 14 kts 329°
2026-05-05 08:59 -33.96406 18.60067 159 ft 16 kts 315°
2026-05-05 08:59 -33.96324 18.59969 158 ft 14 kts 315°
2026-05-05 09:00 -33.96272 18.59907 158 ft 10 kts 315°
2026-05-05 09:00 -33.96219 18.59845 158 ft 11 kts 315°
2026-05-05 09:00 -33.96196 18.59762 158 ft 12 kts 237°
2026-05-05 09:00 -33.96272 18.59730 159 ft 12 kts 176°
2026-05-05 09:01 -33.96353 18.59746 159 ft 10 kts 170°
2026-05-05 09:01 -33.96424 18.59761 159 ft 11 kts 171°
2026-05-05 09:01 -33.96485 18.59774 159 ft 8 kts 170°
2026-05-05 09:01 -33.96533 18.59784 159 ft 6 kts 167°
2026-05-05 09:02 -33.96563 18.59794 159 ft 5 kts 164°
2026-05-05 09:02 -33.96599 18.59806 159 ft 6 kts 168°
2026-05-05 09:02 -33.96624 18.59794 159 ft 2 kts 226°
2026-05-05 09:02 -33.96633 18.59775 159 ft 3 kts 248°
2026-05-05 09:03 -33.96639 18.59747 159 ft 4 kts 255°
2026-05-05 09:03 -33.96644 18.59729 159 ft 2 kts 255°
2026-05-05 09:03 -33.96646 18.59718 159 ft 0 kts 255°